Observation data for Estelline on 08/20/2019      Previous  Date  Next       Current Mesonet Observations  Soil Data  Daily Summary Page  Observations in Plain Language
KES1 200500Z 16007KT 31/18 A2997 RMK A01 T03080179  RH  046%=      5-min Rain = 0
KES1 200501Z 15009KT 31/18 A2997 RMK A01 T03070179  RH  046%=      5-min Rain = 0
KES1 200502Z 16009KT 31/18 A2997 RMK A01 T03070178  RH  046%=      5-min Rain = 0
KES1 200503Z 15010KT 31/18 A2997 RMK A01 T03070178  RH  046%=      5-min Rain = 0
KES1 200504Z 16009KT 31/18 A2997 RMK A01 T03080178  RH  046%=      5-min Rain = 0
KES1 200505Z 16010KT 31/18 A2997 RMK A01 T03080178  RH  046%=      5-min Rain = 0
KES1 200506Z 16011KT 31/18 A2997 RMK A01 T03070178  RH  046%=      5-min Rain = 0
KES1 200507Z 16009KT 31/18 A2997 RMK A01 T03080178  RH  046%=      5-min Rain = 0
KES1 200508Z 16009KT 31/18 A2997 RMK A01 T03080178  RH  046%=      5-min Rain = 0
KES1 200509Z 16011KT 31/18 A2997 RMK A01 T03080178  RH  046%=      5-min Rain = 0
KES1 200510Z 16012KT 31/18 A2997 RMK A01 T03080178  RH  046%=      5-min Rain = 0
KES1 200511Z 16010KT 31/18 A2997 RMK A01 T03080178  RH  046%=      5-min Rain = 0
KES1 200512Z 16010KT 31/18 A2997 RMK A01 T03090179  RH  046%=      5-min Rain = 0
KES1 200513Z 16011KT 31/18 A2997 RMK A01 T03080179  RH  046%=      5-min Rain = 0
KES1 200514Z 17010KT 31/18 A2997 RMK A01 T03080179  RH  046%=      5-min Rain = 0
KES1 200515Z 16009KT 31/18 A2998 RMK A01 T03090179  RH  046%=      5-min Rain = 0
KES1 200516Z 16009KT 31/18 A2998 RMK A01 T03080179  RH  046%=      5-min Rain = 0
KES1 200517Z 16011KT 31/18 A2998 RMK A01 T03080179  RH  046%=      5-min Rain = 0
KES1 200518Z 16010KT 31/18 A2998 RMK A01 T03080179  RH  046%=      5-min Rain = 0
KES1 200519Z 16010KT 31/18 A2998 RMK A01 T03080179  RH  046%=      5-min Rain = 0
KES1 200520Z 16011KT 31/18 A2998 RMK A01 T03080179  RH  046%=      5-min Rain = 0
KES1 200521Z 16009KT 31/18 A2998 RMK A01 T03080180  RH  046%=      5-min Rain = 0
KES1 200522Z 16010KT 31/18 A2998 RMK A01 T03080179  RH  046%=      5-min Rain = 0
KES1 200523Z 16011KT 31/18 A2998 RMK A01 T03080179  RH  046%=      5-min Rain = 0
KES1 200524Z 16008KT 31/18 A2998 RMK A01 T03070179  RH  046%=      5-min Rain = 0
KES1 200525Z 17010KT 31/18 A2998 RMK A01 T03070180  RH  046%=      5-min Rain = 0
KES1 200526Z 16012KT 31/18 A2998 RMK A01 T03070179  RH  046%=      5-min Rain = 0
KES1 200527Z 16009KT 31/18 A2998 RMK A01 T03070179  RH  046%=      5-min Rain = 0
KES1 200528Z 16011KT 31/18 A2998 RMK A01 T03070179  RH  046%=      5-min Rain = 0
KES1 200529Z 16011KT 31/18 A2998 RMK A01 T03070179  RH  046%=      5-min Rain = 0
KES1 200530Z 16010KT 31/18 A2998 RMK A01 T03070179  RH  046%=      5-min Rain = 0
KES1 200531Z 16010KT 31/18 A2998 RMK A01 T03070180  RH  047%=      5-min Rain = 0
KES1 200532Z 16011KT 31/18 A2998 RMK A01 T03070181  RH  047%=      5-min Rain = 0
KES1 200533Z 16010KT 31/18 A2998 RMK A01 T03060180  RH  047%=      5-min Rain = 0
KES1 200534Z 16010KT 31/18 A2998 RMK A01 T03060180  RH  047%=      5-min Rain = 0
KES1 200535Z 16010KT 31/18 A2998 RMK A01 T03060180  RH  047%=      5-min Rain = 0
KES1 200536Z 16010KT 31/18 A2998 RMK A01 T03060180  RH  047%=      5-min Rain = 0
KES1 200537Z 16010KT 31/18 A2998 RMK A01 T03050181  RH  047%=      5-min Rain = 0
KES1 200538Z 17010KT 31/18 A2998 RMK A01 T03050180  RH  047%=      5-min Rain = 0
KES1 200539Z 17011KT 30/18 A2998 RMK A01 T03040180  RH  047%=      5-min Rain = 0
KES1 200540Z 16010KT 30/18 A2998 RMK A01 T03040180  RH  047%=      5-min Rain = 0
KES1 200541Z 16012KT 30/18 A2998 RMK A01 T03040180  RH  047%=      5-min Rain = 0
KES1 200542Z 16009KT 30/18 A2998 RMK A01 T03040180  RH  047%=      5-min Rain = 0
KES1 200543Z 16011KT 30/18 A2998 RMK A01 T03040181  RH  048%=      5-min Rain = 0
KES1 200544Z 16010KT 30/18 A2998 RMK A01 T03040180  RH  048%=      5-min Rain = 0
KES1 200545Z 16009KT 30/18 A2998 RMK A01 T03040181  RH  048%=      5-min Rain = 0
KES1 200546Z 17010KT 30/18 A2998 RMK A01 T03030181  RH  048%=      5-min Rain = 0
KES1 200547Z 16011KT 30/18 A2998 RMK A01 T03030181  RH  048%=      5-min Rain = 0
KES1 200548Z 17010KT 30/18 A2998 RMK A01 T03020180  RH  048%=      5-min Rain = 0
KES1 200549Z 16010KT 30/18 A2998 RMK A01 T03020180  RH  048%=      5-min Rain = 0
KES1 200550Z 16010KT 30/18 A2998 RMK A01 T03020181  RH  048%=      5-min Rain = 0
KES1 200551Z 16009KT 30/18 A2998 RMK A01 T03020181  RH  048%=      5-min Rain = 0
KES1 200552Z 16009KT 30/18 A2998 RMK A01 T03020181  RH  048%=      5-min Rain = 0
KES1 200553Z 16010KT 30/18 A2998 RMK A01 T03010181  RH  048%=      5-min Rain = 0
KES1 200554Z 16009KT 30/18 A2998 RMK A01 T03010181  RH  048%=      5-min Rain = 0
KES1 200555Z 16008KT 30/18 A2998 RMK A01 T03010181  RH  049%=      5-min Rain = 0
KES1 200556Z 16008KT 30/18 A2998 RMK A01 T03000181  RH  049%=      5-min Rain = 0
KES1 200557Z 16009KT 30/18 A2998 RMK A01 T03000181  RH  049%=      5-min Rain = 0
KES1 200558Z 15008KT 30/18 A2998 RMK A01 T03000181  RH  049%=      5-min Rain = 0
KES1 200559Z 16009KT 30/18 A2998 RMK A01 T02990181  RH  049%=      5-min Rain = 0
KES1 200600Z 16009KT 30/18 A2998 RMK A01 T02990181  RH  049%=      5-min Rain = 0
KES1 200601Z 16008KT 30/18 A2998 RMK A01 T02980181  RH  049%=      5-min Rain = 0
KES1 200602Z 15009KT 30/18 A2999 RMK A01 T02990181  RH  049%=      5-min Rain = 0
KES1 200603Z 15009KT 30/18 A2999 RMK A01 T02980181  RH  050%=      5-min Rain = 0
KES1 200604Z 16008KT 30/18 A2999 RMK A01 T02970181  RH  050%=      5-min Rain = 0
KES1 200605Z 15007KT 30/18 A2999 RMK A01 T02970181  RH  050%=      5-min Rain = 0
KES1 200606Z 15008KT 30/18 A2999 RMK A01 T02970181  RH  050%=      5-min Rain = 0
KES1 200607Z 16007KT 30/18 A2999 RMK A01 T02960181  RH  050%=      5-min Rain = 0
KES1 200608Z 15008KT 30/18 A2999 RMK A01 T02960181  RH  050%=      5-min Rain = 0
KES1 200609Z 16008KT 30/18 A2999 RMK A01 T02960181  RH  050%=      5-min Rain = 0
KES1 200610Z 15007KT 30/18 A2999 RMK A01 T02960182  RH  050%=      5-min Rain = 0
KES1 200611Z 16007KT 30/18 A2999 RMK A01 T02950181  RH  050%=      5-min Rain = 0
KES1 200612Z 15008KT 30/18 A2999 RMK A01 T02950181  RH  050%=      5-min Rain = 0
KES1 200613Z 15007KT 30/18 A2999 RMK A01 T02950182  RH  051%=      5-min Rain = 0
KES1 200614Z 15008KT 29/18 A2999 RMK A01 T02940181  RH  051%=      5-min Rain = 0
KES1 200615Z 15007KT 29/18 A2999 RMK A01 T02940182  RH  051%=      5-min Rain = 0
KES1 200616Z 15007KT 29/18 A2999 RMK A01 T02930182  RH  051%=      5-min Rain = 0
KES1 200617Z 15008KT 29/18 A2999 RMK A01 T02920182  RH  051%=      5-min Rain = 0
KES1 200618Z 15007KT 29/18 A2999 RMK A01 T02920182  RH  051%=      5-min Rain = 0
KES1 200619Z 15008KT 29/18 A2999 RMK A01 T02920182  RH  052%=      5-min Rain = 0
KES1 200620Z 15008KT 29/18 A2999 RMK A01 T02920182  RH  052%=      5-min Rain = 0
KES1 200621Z 15008KT 29/18 A2999 RMK A01 T02920182  RH  052%=      5-min Rain = 0
KES1 200622Z 15007KT 29/18 A2999 RMK A01 T02910182  RH  052%=      5-min Rain = 0
KES1 200623Z 14007KT 29/18 A2999 RMK A01 T02910183  RH  052%=      5-min Rain = 0
KES1 200624Z 15007KT 29/18 A2999 RMK A01 T02900182  RH  052%=      5-min Rain = 0
KES1 200625Z 15007KT 29/18 A2999 RMK A01 T02900182  RH  052%=      5-min Rain = 0
KES1 200626Z 14007KT 29/18 A2999 RMK A01 T02900182  RH  052%=      5-min Rain = 0
KES1 200627Z 14006KT 29/18 A2999 RMK A01 T02900182  RH  052%=      5-min Rain = 0
KES1 200628Z 15007KT 29/18 A2999 RMK A01 T02900183  RH  052%=      5-min Rain = 0
KES1 200629Z 14006KT 29/18 A2999 RMK A01 T02890183  RH  053%=      5-min Rain = 0
KES1 200630Z 15007KT 29/18 A2999 RMK A01 T02890183  RH  053%=      5-min Rain = 0
KES1 200631Z 15006KT 29/18 A2999 RMK A01 T02890183  RH  053%=      5-min Rain = 0
KES1 200632Z 15007KT 29/18 A2999 RMK A01 T02880183  RH  053%=      5-min Rain = 0
KES1 200633Z 15008KT 29/18 A2999 RMK A01 T02870182  RH  053%=      5-min Rain = 0
KES1 200634Z 15006KT 29/18 A2999 RMK A01 T02870182  RH  053%=      5-min Rain = 0
KES1 200635Z 15006KT 29/18 A2999 RMK A01 T02870182  RH  053%=      5-min Rain = 0
KES1 200636Z 15008KT 29/18 A2999 RMK A01 T02870183  RH  053%=      5-min Rain = 0
KES1 200637Z 15007KT 29/18 A2999 RMK A01 T02870181  RH  053%=      5-min Rain = 0
KES1 200638Z 15006KT 29/18 A2999 RMK A01 T02870182  RH  053%=      5-min Rain = 0
KES1 200639Z 15006KT 29/18 A2999 RMK A01 T02870182  RH  053%=      5-min Rain = 0
KES1 200640Z 15007KT 29/18 A2999 RMK A01 T02870182  RH  053%=      5-min Rain = 0
KES1 200641Z 15007KT 29/18 A2999 RMK A01 T02870182  RH  053%=      5-min Rain = 0
KES1 200642Z 15006KT 29/18 A2999 RMK A01 T02860183  RH  053%=      5-min Rain = 0
KES1 200643Z 15007KT 29/18 A2999 RMK A01 T02860183  RH  054%=      5-min Rain = 0
KES1 200644Z 15006KT 29/18 A2999 RMK A01 T02850183  RH  054%=      5-min Rain = 0
KES1 200645Z 15005KT 29/18 A2999 RMK A01 T02850183  RH  054%=      5-min Rain = 0
KES1 200646Z 15005KT 28/18 A2999 RMK A01 T02840183  RH  054%=      5-min Rain = 0
KES1 200647Z 15007KT 28/18 A2999 RMK A01 T02840183  RH  054%=      5-min Rain = 0
KES1 200648Z 14007KT 28/18 A2999 RMK A01 T02830183  RH  054%=      5-min Rain = 0
KES1 200649Z 15006KT 28/18 A2999 RMK A01 T02830183  RH  055%=      5-min Rain = 0
KES1 200650Z 15006KT 28/18 A2999 RMK A01 T02830183  RH  055%=      5-min Rain = 0
KES1 200651Z 15006KT 28/18 A2999 RMK A01 T02820183  RH  055%=      5-min Rain = 0
KES1 200652Z 15007KT 28/18 A2999 RMK A01 T02830182  RH  055%=      5-min Rain = 0
KES1 200653Z 15007KT 28/18 A2999 RMK A01 T02830182  RH  054%=      5-min Rain = 0
KES1 200654Z 15007KT 28/18 A2999 RMK A01 T02830182  RH  054%=      5-min Rain = 0
KES1 200655Z 15006KT 28/18 A2999 RMK A01 T02830183  RH  055%=      5-min Rain = 0
KES1 200656Z 15008KT 28/18 A2999 RMK A01 T02830183  RH  055%=      5-min Rain = 0
KES1 200657Z 15007KT 28/18 A2999 RMK A01 T02830183  RH  055%=      5-min Rain = 0
KES1 200658Z 15007KT 28/18 A2999 RMK A01 T02820183  RH  055%=      5-min Rain = 0
KES1 200659Z 15007KT 28/18 A2999 RMK A01 T02820183  RH  055%=      5-min Rain = 0
KES1 200700Z 15007KT 28/18 A2999 RMK A01 T02820184  RH  055%=      5-min Rain = 0
KES1 200701Z 15007KT 28/18 A2999 RMK A01 T02810183  RH  055%=      5-min Rain = 0
KES1 200702Z 15007KT 28/18 A2999 RMK A01 T02810183  RH  055%=      5-min Rain = 0
KES1 200703Z 15007KT 28/18 A2999 RMK A01 T02810183  RH  055%=      5-min Rain = 0
KES1 200704Z 15007KT 28/18 A2999 RMK A01 T02810183  RH  055%=      5-min Rain = 0
KES1 200705Z 15008KT 28/18 A2999 RMK A01 T02800183  RH  056%=      5-min Rain = 0
KES1 200706Z 15007KT 28/18 A2999 RMK A01 T02800183  RH  055%=      5-min Rain = 0
KES1 200707Z 15006KT 28/18 A2999 RMK A01 T02810183  RH  056%=      5-min Rain = 0
KES1 200708Z 14007KT 28/18 A2999 RMK A01 T02800184  RH  056%=      5-min Rain = 0
KES1 200709Z 15008KT 28/18 A2999 RMK A01 T02800183  RH  056%=      5-min Rain = 0
KES1 200710Z 15007KT 28/18 A2999 RMK A01 T02800183  RH  056%=      5-min Rain = 0
KES1 200711Z 15007KT 28/18 A2999 RMK A01 T02800184  RH  056%=      5-min Rain = 0
KES1 200712Z 15007KT 28/18 A2999 RMK A01 T02790184  RH  056%=      5-min Rain = 0
KES1 200713Z 15007KT 28/18 A2999 RMK A01 T02800184  RH  056%=      5-min Rain = 0
KES1 200714Z 15007KT 28/18 A2999 RMK A01 T02800184  RH  056%=      5-min Rain = 0
KES1 200715Z 14007KT 28/18 A2999 RMK A01 T02800184  RH  056%=      5-min Rain = 0
KES1 200716Z 15008KT 28/18 A2999 RMK A01 T02790184  RH  056%=      5-min Rain = 0
KES1 200717Z 14007KT 28/18 A2999 RMK A01 T02790184  RH  056%=      5-min Rain = 0
KES1 200718Z 15006KT 28/18 A2999 RMK A01 T02790184  RH  056%=      5-min Rain = 0
KES1 200719Z 15008KT 28/18 A2999 RMK A01 T02790184  RH  056%=      5-min Rain = 0
KES1 200720Z 15006KT 28/18 A2999 RMK A01 T02790184  RH  056%=      5-min Rain = 0
KES1 200721Z 14007KT 28/18 A2999 RMK A01 T02800184  RH  056%=      5-min Rain = 0
KES1 200722Z 14008KT 28/18 A2999 RMK A01 T02790184  RH  056%=      5-min Rain = 0
KES1 200723Z 14007KT 28/19 A2999 RMK A01 T02790185  RH  056%=      5-min Rain = 0
KES1 200724Z 14007KT 28/18 A2999 RMK A01 T02790184  RH  056%=      5-min Rain = 0
KES1 200725Z 14006KT 28/18 A2999 RMK A01 T02780184  RH  057%=      5-min Rain = 0
KES1 200726Z 14008KT 28/19 A2999 RMK A01 T02790185  RH  057%=      5-min Rain = 0
KES1 200727Z 14008KT 28/18 A2999 RMK A01 T02780184  RH  056%=      5-min Rain = 0
KES1 200728Z 14008KT 28/18 A2999 RMK A01 T02790184  RH  056%=      5-min Rain = 0
KES1 200729Z 15008KT 28/19 A2999 RMK A01 T02790185  RH  057%=      5-min Rain = 0
KES1 200730Z 14007KT 28/18 A2999 RMK A01 T02790184  RH  056%=      5-min Rain = 0
KES1 200731Z 15007KT 28/18 A2999 RMK A01 T02790184  RH  057%=      5-min Rain = 0
KES1 200732Z 15006KT 28/19 A2999 RMK A01 T02790185  RH  057%=      5-min Rain = 0
KES1 200733Z 15007KT 28/19 A2999 RMK A01 T02780185  RH  057%=      5-min Rain = 0
KES1 200734Z 15008KT 28/18 A2999 RMK A01 T02780184  RH  057%=      5-min Rain = 0
KES1 200735Z 15006KT 28/18 A2999 RMK A01 T02780184  RH  057%=      5-min Rain = 0
KES1 200736Z 15007KT 28/18 A2999 RMK A01 T02780184  RH  057%=      5-min Rain = 0
KES1 200737Z 15007KT 28/19 A2999 RMK A01 T02780185  RH  057%=      5-min Rain = 0
KES1 200738Z 15008KT 28/18 A2999 RMK A01 T02780184  RH  057%=      5-min Rain = 0
KES1 200739Z 15008KT 28/18 A2999 RMK A01 T02780184  RH  057%=      5-min Rain = 0
KES1 200740Z 15008KT 28/18 A2999 RMK A01 T02780184  RH  057%=      5-min Rain = 0
KES1 200741Z 15008KT 28/18 A2999 RMK A01 T02780184  RH  057%=      5-min Rain = 0
KES1 200742Z 15008KT 28/18 A2999 RMK A01 T02780184  RH  057%=      5-min Rain = 0
KES1 200743Z 15007KT 28/18 A2999 RMK A01 T02780184  RH  056%=      5-min Rain = 0
KES1 200744Z 15007KT 28/18 A2999 RMK A01 T02780184  RH  056%=      5-min Rain = 0
KES1 200745Z 16007KT 28/18 A2999 RMK A01 T02780184  RH  056%=      5-min Rain = 0
KES1 200746Z 15007KT 28/19 A2999 RMK A01 T02780185  RH  057%=      5-min Rain = 0
KES1 200747Z 15007KT 28/19 A2999 RMK A01 T02780185  RH  057%=      5-min Rain = 0
KES1 200748Z 16007KT 28/19 A2999 RMK A01 T02780185  RH  057%=      5-min Rain = 0
KES1 200749Z 16008KT 28/18 A2999 RMK A01 T02780184  RH  057%=      5-min Rain = 0
KES1 200750Z 16006KT 28/18 A2999 RMK A01 T02770184  RH  057%=      5-min Rain = 0
KES1 200751Z 16007KT 28/18 A2999 RMK A01 T02770184  RH  057%=      5-min Rain = 0
KES1 200752Z 16007KT 28/19 A2999 RMK A01 T02770185  RH  057%=      5-min Rain = 0
KES1 200753Z 16006KT 28/19 A2999 RMK A01 T02780185  RH  057%=      5-min Rain = 0
KES1 200754Z 16007KT 28/19 A2999 RMK A01 T02770185  RH  057%=      5-min Rain = 0
KES1 200755Z 16006KT 28/19 A2999 RMK A01 T02770185  RH  057%=      5-min Rain = 0
KES1 200756Z 16007KT 28/18 A2999 RMK A01 T02760184  RH  057%=      5-min Rain = 0
KES1 200757Z 15007KT 28/19 A2999 RMK A01 T02760185  RH  057%=      5-min Rain = 0
KES1 200758Z 16007KT 28/19 A2999 RMK A01 T02770185  RH  058%=      5-min Rain = 0
KES1 200759Z 17007KT 28/19 A2999 RMK A01 T02760185  RH  058%=      5-min Rain = 0
KES1 200800Z 16008KT 28/19 A2999 RMK A01 T02750185  RH  058%=      5-min Rain = 0
KES1 200801Z 16005KT 28/19 A2999 RMK A01 T02760185  RH  058%=      5-min Rain = 0
KES1 200802Z 17006KT 28/19 A2999 RMK A01 T02750185  RH  058%=      5-min Rain = 0
KES1 200803Z 16007KT 28/19 A2999 RMK A01 T02750185  RH  058%=      5-min Rain = 0
KES1 200804Z 17007KT 28/19 A2999 RMK A01 T02750185  RH  058%=      5-min Rain = 0
KES1 200805Z 16006KT 28/19 A2999 RMK A01 T02750185  RH  058%=      5-min Rain = 0
KES1 200806Z 17006KT 27/19 A2999 RMK A01 T02740185  RH  058%=      5-min Rain = 0
KES1 200807Z 16006KT 27/19 A2999 RMK A01 T02740185  RH  058%=      5-min Rain = 0
KES1 200808Z 17007KT 27/19 A2999 RMK A01 T02740185  RH  058%=      5-min Rain = 0
KES1 200809Z 16005KT 27/19 A2999 RMK A01 T02740186  RH  059%=      5-min Rain = 0
KES1 200810Z 17007KT 27/19 A2999 RMK A01 T02730186  RH  059%=      5-min Rain = 0
KES1 200811Z 16006KT 27/19 A2999 RMK A01 T02730186  RH  059%=      5-min Rain = 0
KES1 200812Z 17007KT 27/19 A2999 RMK A01 T02720186  RH  059%=      5-min Rain = 0
KES1 200813Z 17006KT 27/19 A2999 RMK A01 T02720186  RH  059%=      5-min Rain = 0
KES1 200814Z 16006KT 27/19 A2999 RMK A01 T02720186  RH  059%=      5-min Rain = 0
KES1 200815Z 17006KT 27/19 A2999 RMK A01 T02720187  RH  060%=      5-min Rain = 0
KES1 200816Z 17006KT 27/19 A2999 RMK A01 T02720187  RH  060%=      5-min Rain = 0
KES1 200817Z 17006KT 27/19 A2999 RMK A01 T02720187  RH  060%=      5-min Rain = 0
KES1 200818Z 16006KT 27/19 A2999 RMK A01 T02710187  RH  060%=      5-min Rain = 0
KES1 200819Z 17006KT 27/19 A2999 RMK A01 T02700186  RH  060%=      5-min Rain = 0
KES1 200820Z 17007KT 27/19 A2999 RMK A01 T02700187  RH  060%=      5-min Rain = 0
KES1 200821Z 17006KT 27/19 A2999 RMK A01 T02700187  RH  060%=      5-min Rain = 0
KES1 200822Z 17007KT 27/19 A2999 RMK A01 T02700187  RH  060%=      5-min Rain = 0
KES1 200823Z 18006KT 27/19 A2999 RMK A01 T02700187  RH  060%=      5-min Rain = 0
KES1 200824Z 17005KT 27/19 A2999 RMK A01 T02700187  RH  060%=      5-min Rain = 0
KES1 200825Z 17006KT 27/19 A2999 RMK A01 T02700187  RH  060%=      5-min Rain = 0
KES1 200826Z 17006KT 27/19 A2999 RMK A01 T02700187  RH  061%=      5-min Rain = 0
KES1 200827Z 17005KT 27/19 A2999 RMK A01 T02700187  RH  061%=      5-min Rain = 0
KES1 200828Z 18007KT 27/19 A2999 RMK A01 T02690187  RH  061%=      5-min Rain = 0
KES1 200829Z 17005KT 27/19 A2999 RMK A01 T02690186  RH  060%=      5-min Rain = 0
KES1 200830Z 16006KT 27/19 A2999 RMK A01 T02700187  RH  061%=      5-min Rain = 0
KES1 200831Z 16005KT 27/19 A2999 RMK A01 T02700187  RH  061%=      5-min Rain = 0
KES1 200832Z 17006KT 27/19 A2999 RMK A01 T02690187  RH  061%=      5-min Rain = 0
KES1 200833Z 16006KT 27/19 A2999 RMK A01 T02690187  RH  061%=      5-min Rain = 0
KES1 200834Z 16007KT 27/19 A2999 RMK A01 T02690187  RH  061%=      5-min Rain = 0
KES1 200835Z 16007KT 27/19 A2999 RMK A01 T02690187  RH  061%=      5-min Rain = 0
KES1 200836Z 16006KT 27/19 A2999 RMK A01 T02680187  RH  061%=      5-min Rain = 0
KES1 200837Z 16006KT 27/19 A2999 RMK A01 T02680188  RH  061%=      5-min Rain = 0
KES1 200838Z 16006KT 27/19 A2999 RMK A01 T02670188  RH  062%=      5-min Rain = 0
KES1 200839Z 16006KT 27/19 A2999 RMK A01 T02670188  RH  062%=      5-min Rain = 0
KES1 200840Z 16006KT 27/19 A2999 RMK A01 T02660188  RH  062%=      5-min Rain = 0
KES1 200841Z 16006KT 27/19 A2999 RMK A01 T02650188  RH  062%=      5-min Rain = 0
KES1 200842Z 16006KT 27/19 A2999 RMK A01 T02650188  RH  063%=      5-min Rain = 0
KES1 200843Z 16006KT 26/19 A2999 RMK A01 T02640188  RH  063%=      5-min Rain = 0
KES1 200844Z 16005KT 26/19 A2999 RMK A01 T02640188  RH  063%=      5-min Rain = 0
KES1 200845Z 16006KT 26/19 A2999 RMK A01 T02630188  RH  063%=      5-min Rain = 0
KES1 200846Z 16006KT 26/19 A2999 RMK A01 T02640188  RH  063%=      5-min Rain = 0
KES1 200847Z 16006KT 26/19 A2999 RMK A01 T02630188  RH  063%=      5-min Rain = 0
KES1 200848Z 16005KT 26/19 A2999 RMK A01 T02630189  RH  064%=      5-min Rain = 0
KES1 200849Z 16006KT 26/19 A2999 RMK A01 T02630189  RH  064%=      5-min Rain = 0
KES1 200850Z 16005KT 26/19 A2999 RMK A01 T02620189  RH  064%=      5-min Rain = 0
KES1 200851Z 16006KT 26/19 A2999 RMK A01 T02620189  RH  064%=      5-min Rain = 0
KES1 200852Z 17005KT 26/19 A2999 RMK A01 T02620189  RH  064%=      5-min Rain = 0
KES1 200853Z 17005KT 26/19 A2999 RMK A01 T02620189  RH  064%=      5-min Rain = 0
KES1 200854Z 17005KT 26/19 A30 RMK A01 T02620189  RH  064%=      5-min Rain = 0
KES1 200855Z 17005KT 26/19 A30 RMK A01 T02620188  RH  064%=      5-min Rain = 0
KES1 200856Z 17006KT 26/19 A30 RMK A01 T02620188  RH  064%=      5-min Rain = 0
KES1 200857Z 17004KT 26/19 A30 RMK A01 T02620188  RH  064%=      5-min Rain = 0
KES1 200858Z 17005KT 26/19 A30 RMK A01 T02630189  RH  064%=      5-min Rain = 0
KES1 200859Z 17004KT 26/19 A30 RMK A01 T02630189  RH  064%=      5-min Rain = 0
KES1 200900Z 17004KT 26/19 A30 RMK A01 T02630189  RH  064%=      5-min Rain = 0
KES1 200901Z 17005KT 26/19 A30 RMK A01 T02620189  RH  064%=      5-min Rain = 0
KES1 200902Z 18005KT 26/19 A30 RMK A01 T02620189  RH  064%=      5-min Rain = 0
KES1 200903Z 18004KT 26/19 A30 RMK A01 T02620189  RH  064%=      5-min Rain = 0
KES1 200904Z 18004KT 26/19 A30 RMK A01 T02620189  RH  064%=      5-min Rain = 0
KES1 200905Z 18004KT 26/19 A30 RMK A01 T02620189  RH  064%=      5-min Rain = 0
KES1 200906Z 19004KT 26/19 A30 RMK A01 T02620189  RH  064%=      5-min Rain = 0
KES1 200907Z 19004KT 26/19 A30 RMK A01 T02620189  RH  064%=      5-min Rain = 0
KES1 200908Z 19004KT 26/19 A30 RMK A01 T02610189  RH  064%=      5-min Rain = 0
KES1 200909Z 19005KT 26/19 A30 RMK A01 T02610188  RH  064%=      5-min Rain = 0
KES1 200910Z 19004KT 26/19 A30 RMK A01 T02610189  RH  064%=      5-min Rain = 0
KES1 200911Z 18005KT 26/19 A30 RMK A01 T02610188  RH  064%=      5-min Rain = 0
KES1 200912Z 18004KT 26/19 A30 RMK A01 T02610188  RH  064%=      5-min Rain = 0
KES1 200913Z 18004KT 26/19 A30 RMK A01 T02610188  RH  064%=      5-min Rain = 0
KES1 200914Z 18004KT 26/19 A30 RMK A01 T02610188  RH  064%=      5-min Rain = 0
KES1 200915Z 19004KT 26/19 A30 RMK A01 T02610189  RH  064%=      5-min Rain = 0
KES1 200916Z 19004KT 26/19 A30 RMK A01 T02610189  RH  064%=      5-min Rain = 0
KES1 200917Z 19003KT 26/19 A30 RMK A01 T02610188  RH  064%=      5-min Rain = 0
KES1 200918Z 19004KT 26/19 A30 RMK A01 T02610188  RH  064%=      5-min Rain = 0
KES1 200919Z 19004KT 26/19 A30 RMK A01 T02610189  RH  065%=      5-min Rain = 0
KES1 200920Z 18004KT 26/19 A30 RMK A01 T02600188  RH  065%=      5-min Rain = 0
KES1 200921Z 19004KT 26/19 A30 RMK A01 T02600188  RH  064%=      5-min Rain = 0
KES1 200922Z 19004KT 26/19 A30 RMK A01 T02600189  RH  065%=      5-min Rain = 0
KES1 200923Z 19004KT 26/19 A30 RMK A01 T02600189  RH  065%=      5-min Rain = 0
KES1 200924Z 19004KT 26/19 A30 RMK A01 T02600189  RH  065%=      5-min Rain = 0
KES1 200925Z 19003KT 26/19 A30 RMK A01 T02590189  RH  065%=      5-min Rain = 0
KES1 200926Z 19004KT 26/19 A30 RMK A01 T02590189  RH  065%=      5-min Rain = 0
KES1 200927Z 19003KT 26/19 A30 RMK A01 T02580190  RH  066%=      5-min Rain = 0
KES1 200928Z 18003KT 26/19 A30 RMK A01 T02580189  RH  066%=      5-min Rain = 0
KES1 200929Z 19003KT 26/19 A30 RMK A01 T02580189  RH  066%=      5-min Rain = 0
KES1 200930Z 18004KT 26/19 A30 RMK A01 T02570189  RH  066%=      5-min Rain = 0
KES1 200931Z 19003KT 26/19 A30 RMK A01 T02570189  RH  066%=      5-min Rain = 0
KES1 200932Z 19003KT 26/19 A30 RMK A01 T02580190  RH  066%=      5-min Rain = 0
KES1 200933Z 18003KT 26/19 A30 RMK A01 T02580190  RH  066%=      5-min Rain = 0
KES1 200934Z 19003KT 26/19 A30 RMK A01 T02570189  RH  066%=      5-min Rain = 0
KES1 200935Z 18003KT 26/19 A30 RMK A01 T02570190  RH  066%=      5-min Rain = 0
KES1 200936Z 18003KT 26/19 A30 RMK A01 T02570190  RH  067%=      5-min Rain = 0
KES1 200937Z 18004KT 26/19 A30 RMK A01 T02560189  RH  066%=      5-min Rain = 0
KES1 200938Z 18004KT 26/19 A30 RMK A01 T02560188  RH  066%=      5-min Rain = 0
KES1 200939Z 17004KT 26/19 A30 RMK A01 T02570189  RH  066%=      5-min Rain = 0
KES1 200940Z 17004KT 26/19 A30 RMK A01 T02570189  RH  066%=      5-min Rain = 0
KES1 200941Z 17005KT 26/19 A30 RMK A01 T02570189  RH  066%=      5-min Rain = 0
KES1 200942Z 17004KT 26/19 A30 RMK A01 T02570188  RH  066%=      5-min Rain = 0
KES1 200943Z 17004KT 26/19 A30 RMK A01 T02580188  RH  065%=      5-min Rain = 0
KES1 200944Z 17004KT 26/19 A30 RMK A01 T02580188  RH  065%=      5-min Rain = 0
KES1 200945Z 17004KT 26/19 A30 RMK A01 T02580188  RH  065%=      5-min Rain = 0
KES1 200946Z 17005KT 26/19 A30 RMK A01 T02580188  RH  065%=      5-min Rain = 0
KES1 200947Z 17004KT 26/19 A30 RMK A01 T02590188  RH  065%=      5-min Rain = 0
KES1 200948Z 17005KT 26/19 A30 RMK A01 T02590188  RH  065%=      5-min Rain = 0
KES1 200949Z 17005KT 26/19 A30 RMK A01 T02590188  RH  065%=      5-min Rain = 0
KES1 200950Z 17005KT 26/19 A30 RMK A01 T02600188  RH  065%=      5-min Rain = 0
KES1 200951Z 17005KT 26/19 A30 RMK A01 T02600188  RH  064%=      5-min Rain = 0
KES1 200952Z 18005KT 26/19 A30 RMK A01 T02600188  RH  064%=      5-min Rain = 0
KES1 200953Z 17005KT 26/19 A30 RMK A01 T02610188  RH  064%=      5-min Rain = 0
KES1 200954Z 17004KT 26/19 A30 RMK A01 T02600188  RH  064%=      5-min Rain = 0
KES1 200955Z 16004KT 26/19 A30 RMK A01 T02600188  RH  065%=      5-min Rain = 0
KES1 200956Z 16004KT 26/19 A30 RMK A01 T02590189  RH  065%=      5-min Rain = 0
KES1 200957Z 16004KT 26/19 A30 RMK A01 T02590189  RH  065%=      5-min Rain = 0
KES1 200958Z 16004KT 26/19 A30 RMK A01 T02580189  RH  066%=      5-min Rain = 0
KES1 200959Z 16004KT 26/19 A30 RMK A01 T02570189  RH  066%=      5-min Rain = 0
KES1 201000Z 15004KT 26/19 A30 RMK A01 T02570189  RH  066%=      5-min Rain = 0
KES1 201001Z 16004KT 26/19 A30 RMK A01 T02560189  RH  066%=      5-min Rain = 0
KES1 201002Z 16004KT 26/19 A30 RMK A01 T02560189  RH  067%=      5-min Rain = 0
KES1 201003Z 15004KT 26/19 A30 RMK A01 T02550189  RH  067%=      5-min Rain = 0
KES1 201004Z 16003KT 26/19 A30 RMK A01 T02550189  RH  067%=      5-min Rain = 0
KES1 201005Z 15003KT 26/19 A30 RMK A01 T02550189  RH  067%=      5-min Rain = 0
KES1 201006Z 16004KT 25/19 A30 RMK A01 T02540189  RH  067%=      5-min Rain = 0
KES1 201007Z 16004KT 25/19 A30 RMK A01 T02540189  RH  067%=      5-min Rain = 0
KES1 201008Z 16003KT 25/19 A30 RMK A01 T02530189  RH  068%=      5-min Rain = 0
KES1 201009Z 16003KT 25/19 A30 RMK A01 T02530189  RH  068%=      5-min Rain = 0
KES1 201010Z 16002KT 25/19 A30 RMK A01 T02530189  RH  068%=      5-min Rain = 0
KES1 201011Z 16003KT 25/19 A30 RMK A01 T02530189  RH  068%=      5-min Rain = 0
KES1 201012Z 16002KT 25/19 A30 RMK A01 T02530189  RH  068%=      5-min Rain = 0
KES1 201013Z 16002KT 25/19 A30 RMK A01 T02530189  RH  068%=      5-min Rain = 0
KES1 201014Z 16002KT 25/19 A30 RMK A01 T02530189  RH  068%=      5-min Rain = 0
KES1 201015Z 17001KT 25/19 A30 RMK A01 T02530189  RH  068%=      5-min Rain = 0
KES1 201016Z 16002KT 25/19 A30 RMK A01 T02530189  RH  068%=      5-min Rain = 0
KES1 201017Z 16002KT 25/19 A30 RMK A01 T02520189  RH  068%=      5-min Rain = 0
KES1 201018Z 15002KT 25/19 A30 RMK A01 T02520189  RH  068%=      5-min Rain = 0
KES1 201019Z 15002KT 25/19 A3001 RMK A01 T02520189  RH  068%=      5-min Rain = 0
KES1 201020Z 15002KT 25/19 A3001 RMK A01 T02520189  RH  068%=      5-min Rain = 0
KES1 201021Z 14002KT 25/19 A3001 RMK A01 T02510189  RH  068%=      5-min Rain = 0
KES1 201022Z 13002KT 25/19 A3001 RMK A01 T02510189  RH  068%=      5-min Rain = 0
KES1 201023Z 13002KT 25/19 A3001 RMK A01 T02510189  RH  069%=      5-min Rain = 0
KES1 201024Z 12002KT 25/19 A3001 RMK A01 T02500189  RH  069%=      5-min Rain = 0
KES1 201025Z 13002KT 25/19 A3001 RMK A01 T02490190  RH  069%=      5-min Rain = 0
KES1 201026Z 14002KT 25/19 A3001 RMK A01 T02490190  RH  070%=      5-min Rain = 0
KES1 201027Z 14002KT 25/19 A3001 RMK A01 T02490190  RH  070%=      5-min Rain = 0
KES1 201028Z 15003KT 25/19 A3001 RMK A01 T02480189  RH  070%=      5-min Rain = 0
KES1 201029Z 16003KT 25/19 A3001 RMK A01 T02480189  RH  069%=      5-min Rain = 0
KES1 201030Z 16003KT 25/19 A3001 RMK A01 T02490189  RH  069%=      5-min Rain = 0
KES1 201031Z 16003KT 25/19 A3001 RMK A01 T02480189  RH  069%=      5-min Rain = 0
KES1 201032Z 16003KT 25/19 A3001 RMK A01 T02480188  RH  069%=      5-min Rain = 0
KES1 201033Z 16003KT 25/19 A3001 RMK A01 T02490189  RH  069%=      5-min Rain = 0
KES1 201034Z 16004KT 25/19 A3001 RMK A01 T02500188  RH  068%=      5-min Rain = 0
KES1 201035Z 16004KT 25/19 A3001 RMK A01 T02500189  RH  069%=      5-min Rain = 0
KES1 201036Z 15003KT 25/19 A3001 RMK A01 T02500189  RH  069%=      5-min Rain = 0
KES1 201037Z 15004KT 25/19 A3001 RMK A01 T02500189  RH  069%=      5-min Rain = 0
KES1 201038Z 15004KT 25/19 A3001 RMK A01 T02490190  RH  070%=      5-min Rain = 0
KES1 201039Z 14004KT 25/19 A3001 RMK A01 T02480191  RH  070%=      5-min Rain = 0
KES1 201040Z 14004KT 25/19 A3001 RMK A01 T02470192  RH  071%=      5-min Rain = 0
KES1 201041Z 14004KT 25/19 A3001 RMK A01 T02460193  RH  073%=      5-min Rain = 0
KES1 201042Z 14004KT 24/19 A3001 RMK A01 T02440192  RH  073%=      5-min Rain = 0
KES1 201043Z 14004KT 24/19 A3001 RMK A01 T02440191  RH  072%=      5-min Rain = 0
KES1 201044Z 14004KT 24/19 A3001 RMK A01 T02440190  RH  072%=      5-min Rain = 0
KES1 201045Z 14004KT 24/19 A3001 RMK A01 T02440189  RH  072%=      5-min Rain = 0
KES1 201046Z 14004KT 25/19 A3001 RMK A01 T02450189  RH  071%=      5-min Rain = 0
KES1 201047Z 15004KT 25/19 A3001 RMK A01 T02450189  RH  071%=      5-min Rain = 0
KES1 201048Z 15004KT 25/19 A3001 RMK A01 T02460189  RH  071%=      5-min Rain = 0
KES1 201049Z 15004KT 25/19 A3001 RMK A01 T02460190  RH  071%=      5-min Rain = 0
KES1 201050Z 15004KT 25/19 A3001 RMK A01 T02470190  RH  071%=      5-min Rain = 0
KES1 201051Z 16004KT 25/19 A3001 RMK A01 T02470190  RH  071%=      5-min Rain = 0
KES1 201052Z 16004KT 25/19 A3001 RMK A01 T02470189  RH  070%=      5-min Rain = 0
KES1 201053Z 16005KT 25/19 A3001 RMK A01 T02470189  RH  070%=      5-min Rain = 0
KES1 201054Z 16004KT 25/19 A3001 RMK A01 T02480189  RH  070%=      5-min Rain = 0
KES1 201055Z 17004KT 25/19 A3001 RMK A01 T02480188  RH  069%=      5-min Rain = 0
KES1 201056Z 17004KT 25/19 A3001 RMK A01 T02490188  RH  069%=      5-min Rain = 0
KES1 201057Z 18004KT 25/19 A3001 RMK A01 T02500187  RH  068%=      5-min Rain = 0
KES1 201058Z 17004KT 25/19 A3001 RMK A01 T02510187  RH  068%=      5-min Rain = 0
KES1 201059Z 17004KT 25/19 A3001 RMK A01 T02510187  RH  068%=      5-min Rain = 0
KES1 201100Z 18004KT 25/19 A3001 RMK A01 T02520187  RH  067%=      5-min Rain = 0
KES1 201101Z 17004KT 25/19 A3001 RMK A01 T02520188  RH  068%=      5-min Rain = 0
KES1 201102Z 17004KT 25/19 A3001 RMK A01 T02520188  RH  068%=      5-min Rain = 0
KES1 201103Z 17004KT 25/19 A3001 RMK A01 T02520187  RH  067%=      5-min Rain = 0
KES1 201104Z 17004KT 25/19 A3001 RMK A01 T02520187  RH  067%=      5-min Rain = 0
KES1 201105Z 17004KT 25/19 A3001 RMK A01 T02520187  RH  067%=      5-min Rain = 0
KES1 201106Z 16004KT 25/19 A3001 RMK A01 T02530188  RH  067%=      5-min Rain = 0
KES1 201107Z 16004KT 25/19 A3001 RMK A01 T02520188  RH  068%=      5-min Rain = 0
KES1 201108Z 16005KT 25/19 A3001 RMK A01 T02510188  RH  068%=      5-min Rain = 0
KES1 201109Z 16005KT 25/19 A3001 RMK A01 T02500189  RH  069%=      5-min Rain = 0
KES1 201110Z 16005KT 25/19 A3001 RMK A01 T02480189  RH  069%=      5-min Rain = 0
KES1 201111Z 16005KT 25/19 A3001 RMK A01 T02470189  RH  070%=      5-min Rain = 0
KES1 201112Z 16006KT 25/19 A3001 RMK A01 T02460189  RH  070%=      5-min Rain = 0
KES1 201113Z 16006KT 25/19 A3001 RMK A01 T02460189  RH  070%=      5-min Rain = 0
KES1 201114Z 16006KT 25/19 A3001 RMK A01 T02460189  RH  070%=      5-min Rain = 0
KES1 201115Z 16006KT 25/19 A3001 RMK A01 T02460188  RH  070%=      5-min Rain = 0
KES1 201116Z 16006KT 25/19 A3001 RMK A01 T02460188  RH  070%=      5-min Rain = 0
KES1 201117Z 17007KT 25/19 A3001 RMK A01 T02460188  RH  070%=      5-min Rain = 0
KES1 201118Z 17006KT 25/19 A3001 RMK A01 T02470188  RH  070%=      5-min Rain = 0
KES1 201119Z 16006KT 25/19 A3001 RMK A01 T02470188  RH  070%=      5-min Rain = 0
KES1 201120Z 17006KT 25/19 A3001 RMK A01 T02470188  RH  069%=      5-min Rain = 0
KES1 201121Z 16006KT 25/19 A3001 RMK A01 T02480187  RH  069%=      5-min Rain = 0
KES1 201122Z 17006KT 25/19 A3001 RMK A01 T02480188  RH  069%=      5-min Rain = 0
KES1 201123Z 17006KT 25/19 A3001 RMK A01 T02480188  RH  069%=      5-min Rain = 0
KES1 201124Z 16006KT 25/19 A3001 RMK A01 T02480188  RH  069%=      5-min Rain = 0
KES1 201125Z 17006KT 25/19 A3001 RMK A01 T02480188  RH  069%=      5-min Rain = 0
KES1 201126Z 16005KT 25/19 A3001 RMK A01 T02480188  RH  069%=      5-min Rain = 0
KES1 201127Z 17005KT 25/19 A3001 RMK A01 T02480188  RH  069%=      5-min Rain = 0
KES1 201128Z 17006KT 25/19 A3001 RMK A01 T02480188  RH  069%=      5-min Rain = 0
KES1 201129Z 17006KT 25/19 A3001 RMK A01 T02480188  RH  069%=      5-min Rain = 0
KES1 201130Z 17006KT 25/19 A3001 RMK A01 T02480188  RH  069%=      5-min Rain = 0
KES1 201131Z 17006KT 25/19 A3001 RMK A01 T02480188  RH  069%=      5-min Rain = 0
KES1 201132Z 17005KT 25/19 A3001 RMK A01 T02480188  RH  069%=      5-min Rain = 0
KES1 201133Z 17007KT 25/19 A3001 RMK A01 T02480188  RH  070%=      5-min Rain = 0
KES1 201134Z 16006KT 25/19 A3002 RMK A01 T02470188  RH  070%=      5-min Rain = 0
KES1 201135Z 17006KT 25/19 A3002 RMK A01 T02470188  RH  070%=      5-min Rain = 0
KES1 201136Z 16007KT 25/19 A3002 RMK A01 T02470188  RH  070%=      5-min Rain = 0
KES1 201137Z 16005KT 25/19 A3002 RMK A01 T02460188  RH  070%=      5-min Rain = 0
KES1 201138Z 16006KT 25/19 A3002 RMK A01 T02460188  RH  070%=      5-min Rain = 0
KES1 201139Z 17007KT 25/19 A3002 RMK A01 T02450188  RH  071%=      5-min Rain = 0
KES1 201140Z 16006KT 25/19 A3001 RMK A01 T02450189  RH  071%=      5-min Rain = 0
KES1 201141Z 17005KT 25/19 A3002 RMK A01 T02450188  RH  071%=      5-min Rain = 0
KES1 201142Z 18006KT 25/19 A3001 RMK A01 T02450189  RH  071%=      5-min Rain = 0
KES1 201143Z 17006KT 24/19 A3001 RMK A01 T02440188  RH  071%=      5-min Rain = 0
KES1 201144Z 17006KT 24/19 A3001 RMK A01 T02440188  RH  071%=      5-min Rain = 0
KES1 201145Z 18006KT 25/19 A3001 RMK A01 T02450189  RH  071%=      5-min Rain = 0
KES1 201146Z 18006KT 24/19 A3001 RMK A01 T02440188  RH  071%=      5-min Rain = 0
KES1 201147Z 18006KT 24/19 A3001 RMK A01 T02440188  RH  071%=      5-min Rain = 0
KES1 201148Z 18006KT 24/19 A3001 RMK A01 T02440188  RH  071%=      5-min Rain = 0
KES1 201149Z 18007KT 25/19 A3001 RMK A01 T02450188  RH  071%=      5-min Rain = 0
KES1 201150Z 18006KT 25/19 A3001 RMK A01 T02450188  RH  071%=      5-min Rain = 0
KES1 201151Z 18006KT 25/19 A3001 RMK A01 T02450188  RH  071%=      5-min Rain = 0
KES1 201152Z 18007KT 25/19 A3001 RMK A01 T02450189  RH  071%=      5-min Rain = 0
KES1 201153Z 18007KT 25/19 A3001 RMK A01 T02450188  RH  071%=      5-min Rain = 0
KES1 201154Z 18007KT 25/19 A3001 RMK A01 T02450188  RH  071%=      5-min Rain = 0
KES1 201155Z 17007KT 25/19 A3001 RMK A01 T02450188  RH  071%=      5-min Rain = 0
KES1 201156Z 18007KT 25/19 A3002 RMK A01 T02450189  RH  071%=      5-min Rain = 0
KES1 201157Z 18006KT 25/19 A3002 RMK A01 T02450188  RH  071%=      5-min Rain = 0
KES1 201158Z 18005KT 24/19 A3002 RMK A01 T02440189  RH  071%=      5-min Rain = 0
KES1 201159Z 17006KT 24/19 A3002 RMK A01 T02440188  RH  071%=      5-min Rain = 0
KES1 201200Z 18005KT 24/19 A3002 RMK A01 T02440188  RH  071%=      5-min Rain = 0
KES1 201201Z 18006KT 24/19 A3002 RMK A01 T02440188  RH  071%=      5-min Rain = 0
KES1 201202Z 18005KT 24/19 A3002 RMK A01 T02440188  RH  071%=      5-min Rain = 0
KES1 201203Z 18006KT 24/19 A3002 RMK A01 T02440188  RH  071%=      5-min Rain = 0
KES1 201204Z 18005KT 25/19 A3002 RMK A01 T02450187  RH  070%=      5-min Rain = 0
KES1 201205Z 18006KT 25/19 A3002 RMK A01 T02450189  RH  071%=      5-min Rain = 0
KES1 201206Z 18006KT 25/19 A3002 RMK A01 T02450187  RH  070%=      5-min Rain = 0
KES1 201207Z 18005KT 25/19 A3002 RMK A01 T02460187  RH  070%=      5-min Rain = 0
KES1 201208Z 17006KT 25/19 A3002 RMK A01 T02460187  RH  070%=      5-min Rain = 0
KES1 201209Z 17005KT 25/19 A3002 RMK A01 T02460187  RH  069%=      5-min Rain = 0
KES1 201210Z 17004KT 25/19 A3002 RMK A01 T02470187  RH  069%=      5-min Rain = 0
KES1 201211Z 17005KT 25/19 A3002 RMK A01 T02460187  RH  070%=      5-min Rain = 0
KES1 201212Z 17005KT 25/19 A3002 RMK A01 T02460188  RH  070%=      5-min Rain = 0
KES1 201213Z 17005KT 25/19 A3002 RMK A01 T02460188  RH  070%=      5-min Rain = 0
KES1 201214Z 17005KT 25/19 A3002 RMK A01 T02460188  RH  070%=      5-min Rain = 0
KES1 201215Z 16005KT 25/19 A3002 RMK A01 T02460188  RH  070%=      5-min Rain = 0
KES1 201216Z 16005KT 25/19 A3002 RMK A01 T02460188  RH  070%=      5-min Rain = 0
KES1 201217Z 17004KT 25/19 A3002 RMK A01 T02450189  RH  071%=      5-min Rain = 0
KES1 201218Z 16005KT 25/19 A3002 RMK A01 T02450189  RH  071%=      5-min Rain = 0
KES1 201219Z 16005KT 24/19 A3002 RMK A01 T02440189  RH  071%=      5-min Rain = 0
KES1 201220Z 17005KT 24/19 A3002 RMK A01 T02440189  RH  071%=      5-min Rain = 0
KES1 201221Z 17005KT 24/19 A3002 RMK A01 T02440189  RH  071%=      5-min Rain = 0
KES1 201222Z 16006KT 24/19 A3002 RMK A01 T02440189  RH  071%=      5-min Rain = 0
KES1 201223Z 17006KT 24/19 A3002 RMK A01 T02440189  RH  071%=      5-min Rain = 0
KES1 201224Z 17006KT 24/19 A3002 RMK A01 T02440189  RH  071%=      5-min Rain = 0
KES1 201225Z 17005KT 25/19 A3002 RMK A01 T02450189  RH  071%=      5-min Rain = 0
KES1 201226Z 17005KT 25/19 A3002 RMK A01 T02450189  RH  071%=      5-min Rain = 0
KES1 201227Z 17005KT 25/19 A3002 RMK A01 T02450189  RH  071%=      5-min Rain = 0
KES1 201228Z 17006KT 25/19 A3003 RMK A01 T02450189  RH  071%=      5-min Rain = 0
KES1 201229Z 17005KT 25/19 A3003 RMK A01 T02450189  RH  071%=      5-min Rain = 0
KES1 201230Z 17006KT 25/19 A3003 RMK A01 T02450190  RH  071%=      5-min Rain = 0
KES1 201231Z 17005KT 25/19 A3003 RMK A01 T02450189  RH  071%=      5-min Rain = 0
KES1 201232Z 17006KT 25/19 A3003 RMK A01 T02450190  RH  071%=      5-min Rain = 0
KES1 201233Z 17005KT 25/19 A3003 RMK A01 T02450190  RH  071%=      5-min Rain = 0
KES1 201234Z 17005KT 25/19 A3003 RMK A01 T02450191  RH  072%=      5-min Rain = 0
KES1 201235Z 17006KT 25/19 A3003 RMK A01 T02450191  RH  072%=      5-min Rain = 0
KES1 201236Z 17006KT 25/19 A3003 RMK A01 T02450190  RH  071%=      5-min Rain = 0
KES1 201237Z 17006KT 25/19 A3003 RMK A01 T02450190  RH  071%=      5-min Rain = 0
KES1 201238Z 17005KT 25/19 A3003 RMK A01 T02450189  RH  071%=      5-min Rain = 0
KES1 201239Z 17005KT 25/19 A3003 RMK A01 T02450189  RH  071%=      5-min Rain = 0
KES1 201240Z 17005KT 25/19 A3003 RMK A01 T02450190  RH  071%=      5-min Rain = 0
KES1 201241Z 17005KT 25/19 A3003 RMK A01 T02450191  RH  071%=      5-min Rain = 0
KES1 201242Z 17005KT 25/19 A3003 RMK A01 T02460190  RH  071%=      5-min Rain = 0
KES1 201243Z 17004KT 25/19 A3003 RMK A01 T02450190  RH  071%=      5-min Rain = 0
KES1 201244Z 17004KT 25/19 A3003 RMK A01 T02450190  RH  071%=      5-min Rain = 0
KES1 201245Z 17005KT 25/19 A3003 RMK A01 T02450189  RH  071%=      5-min Rain = 0
KES1 201246Z 18005KT 25/19 A3003 RMK A01 T02460189  RH  071%=      5-min Rain = 0
KES1 201247Z 19005KT 25/19 A3003 RMK A01 T02460189  RH  071%=      5-min Rain = 0
KES1 201248Z 20004KT 25/19 A3003 RMK A01 T02470189  RH  070%=      5-min Rain = 0
KES1 201249Z 20004KT 25/19 A3003 RMK A01 T02470190  RH  070%=      5-min Rain = 0
KES1 201250Z 20004KT 25/19 A3003 RMK A01 T02470189  RH  070%=      5-min Rain = 0
KES1 201251Z 20003KT 25/19 A3003 RMK A01 T02480189  RH  070%=      5-min Rain = 0
KES1 201252Z 20003KT 25/19 A3003 RMK A01 T02480189  RH  070%=      5-min Rain = 0
KES1 201253Z 20003KT 25/19 A3003 RMK A01 T02490189  RH  069%=      5-min Rain = 0
KES1 201254Z 20004KT 25/19 A3003 RMK A01 T02490190  RH  070%=      5-min Rain = 0
KES1 201255Z 19004KT 25/19 A3003 RMK A01 T02490190  RH  069%=      5-min Rain = 0
KES1 201256Z 19004KT 25/19 A3003 RMK A01 T02490190  RH  069%=      5-min Rain = 0
KES1 201257Z 18004KT 25/19 A3003 RMK A01 T02500190  RH  069%=      5-min Rain = 0
KES1 201258Z 18004KT 25/19 A3003 RMK A01 T02500191  RH  069%=      5-min Rain = 0
KES1 201259Z 17002KT 25/19 A3003 RMK A01 T02510191  RH  069%=      5-min Rain = 0
KES1 201300Z 18002KT 25/19 A3003 RMK A01 T02520191  RH  069%=      5-min Rain = 0
KES1 201301Z 19002KT 25/19 A3003 RMK A01 T02520192  RH  069%=      5-min Rain = 0
KES1 201302Z 19004KT 25/19 A3003 RMK A01 T02520191  RH  069%=      5-min Rain = 0
KES1 201303Z 19004KT 25/19 A3003 RMK A01 T02520191  RH  069%=      5-min Rain = 0
KES1 201304Z 19004KT 25/19 A3003 RMK A01 T02530191  RH  069%=      5-min Rain = 0
KES1 201305Z 19004KT 25/19 A3003 RMK A01 T02530191  RH  069%=      5-min Rain = 0
KES1 201306Z 19004KT 25/19 A3003 RMK A01 T02530191  RH  069%=      5-min Rain = 0
KES1 201307Z 19005KT 25/19 A3003 RMK A01 T02530191  RH  068%=      5-min Rain = 0
KES1 201308Z 19005KT 25/19 A3003 RMK A01 T02530190  RH  068%=      5-min Rain = 0
KES1 201309Z 19005KT 25/19 A3003 RMK A01 T02540190  RH  068%=      5-min Rain = 0
KES1 201310Z 19005KT 25/19 A3003 RMK A01 T02540190  RH  068%=      5-min Rain = 0
KES1 201311Z 18006KT 25/19 A3003 RMK A01 T02540190  RH  068%=      5-min Rain = 0
KES1 201312Z 19005KT 25/19 A3003 RMK A01 T02540190  RH  068%=      5-min Rain = 0
KES1 201313Z 19006KT 25/19 A3003 RMK A01 T02540190  RH  068%=      5-min Rain = 0
KES1 201314Z 18006KT 25/19 A3003 RMK A01 T02540191  RH  068%=      5-min Rain = 0
KES1 201315Z 19005KT 25/19 A3003 RMK A01 T02540191  RH  068%=      5-min Rain = 0
KES1 201316Z 18005KT 25/19 A3003 RMK A01 T02540191  RH  068%=      5-min Rain = 0
KES1 201317Z 18005KT 25/19 A3003 RMK A01 T02540190  RH  068%=      5-min Rain = 0
KES1 201318Z 18005KT 26/19 A3003 RMK A01 T02550192  RH  068%=      5-min Rain = 0
KES1 201319Z 19005KT 26/19 A3003 RMK A01 T02560192  RH  068%=      5-min Rain = 0
KES1 201320Z 17004KT 26/19 A3003 RMK A01 T02570192  RH  067%=      5-min Rain = 0
KES1 201321Z 18004KT 26/19 A3003 RMK A01 T02570192  RH  067%=      5-min Rain = 0
KES1 201322Z 18005KT 26/19 A3003 RMK A01 T02580192  RH  067%=      5-min Rain = 0
KES1 201323Z 18004KT 26/19 A3003 RMK A01 T02600190  RH  066%=      5-min Rain = 0
KES1 201324Z 19004KT 26/19 A3003 RMK A01 T02610191  RH  065%=      5-min Rain = 0
KES1 201325Z 19005KT 26/19 A3003 RMK A01 T02620190  RH  064%=      5-min Rain = 0
KES1 201326Z 18004KT 26/19 A3003 RMK A01 T02630189  RH  064%=      5-min Rain = 0
KES1 201327Z 19004KT 26/19 A3003 RMK A01 T02630189  RH  064%=      5-min Rain = 0
KES1 201328Z 18003KT 26/19 A3004 RMK A01 T02640190  RH  064%=      5-min Rain = 0
KES1 201329Z 19004KT 27/19 A3004 RMK A01 T02650190  RH  063%=      5-min Rain = 0
KES1 201330Z 18004KT 27/19 A3004 RMK A01 T02650189  RH  063%=      5-min Rain = 0
KES1 201331Z 17003KT 27/19 A3004 RMK A01 T02670192  RH  063%=      5-min Rain = 0
KES1 201332Z 16003KT 27/19 A3004 RMK A01 T02680192  RH  063%=      5-min Rain = 0
KES1 201333Z 17004KT 27/19 A3004 RMK A01 T02700193  RH  063%=      5-min Rain = 0
KES1 201334Z 17005KT 27/19 A3004 RMK A01 T02710191  RH  062%=      5-min Rain = 0
KES1 201335Z 17005KT 27/19 A3004 RMK A01 T02720190  RH  061%=      5-min Rain = 0
KES1 201336Z 18004KT 27/19 A3004 RMK A01 T02720189  RH  061%=      5-min Rain = 0
KES1 201337Z 17004KT 27/19 A3004 RMK A01 T02720191  RH  061%=      5-min Rain = 0
KES1 201338Z 17005KT 27/19 A3004 RMK A01 T02730191  RH  061%=      5-min Rain = 0
KES1 201339Z 18005KT 27/19 A3004 RMK A01 T02740190  RH  060%=      5-min Rain = 0
KES1 201340Z 18005KT 27/19 A3004 RMK A01 T02740192  RH  061%=      5-min Rain = 0
KES1 201341Z 18005KT 27/19 A3004 RMK A01 T02740190  RH  060%=      5-min Rain = 0
KES1 201342Z 16004KT 27/19 A3004 RMK A01 T02740190  RH  060%=      5-min Rain = 0
KES1 201343Z 17004KT 28/19 A3004 RMK A01 T02750193  RH  061%=      5-min Rain = 0
KES1 201344Z 17005KT 28/19 A3004 RMK A01 T02770193  RH  060%=      5-min Rain = 0
KES1 201345Z 16005KT 28/19 A3004 RMK A01 T02780192  RH  060%=      5-min Rain = 0
KES1 201346Z 17005KT 28/19 A3004 RMK A01 T02780192  RH  060%=      5-min Rain = 0
KES1 201347Z 16006KT 28/19 A3004 RMK A01 T02790193  RH  060%=      5-min Rain = 0
KES1 201348Z 16007KT 28/19 A3004 RMK A01 T02790190  RH  059%=      5-min Rain = 0
KES1 201349Z 16006KT 28/19 A3004 RMK A01 T02790190  RH  058%=      5-min Rain = 0
KES1 201350Z 16006KT 28/19 A3004 RMK A01 T02800190  RH  058%=      5-min Rain = 0
KES1 201351Z 16005KT 28/19 A3004 RMK A01 T02800191  RH  058%=      5-min Rain = 0
KES1 201352Z 16006KT 28/19 A3004 RMK A01 T02800191  RH  058%=      5-min Rain = 0
KES1 201353Z 16005KT 28/19 A3004 RMK A01 T02810191  RH  058%=      5-min Rain = 0
KES1 201354Z 17006KT 28/19 A3005 RMK A01 T02810191  RH  058%=      5-min Rain = 0
KES1 201355Z 18005KT 28/19 A3005 RMK A01 T02810191  RH  058%=      5-min Rain = 0
KES1 201356Z 16005KT 28/19 A3005 RMK A01 T02820191  RH  058%=      5-min Rain = 0
KES1 201357Z 18003KT 28/19 A3005 RMK A01 T02830191  RH  058%=      5-min Rain = 0
KES1 201358Z 18003KT 28/19 A3005 RMK A01 T02830193  RH  058%=      5-min Rain = 0
KES1 201359Z 18003KT 28/19 A3005 RMK A01 T02840192  RH  057%=      5-min Rain = 0
KES1 201400Z 19002KT 29/19 A3005 RMK A01 T02850191  RH  057%=      5-min Rain = 0
KES1 201401Z 19002KT 29/19 A3005 RMK A01 T02850190  RH  057%=      5-min Rain = 0
KES1 201402Z 18002KT 29/19 A3005 RMK A01 T02850192  RH  057%=      5-min Rain = 0
KES1 201403Z 20003KT 29/19 A3005 RMK A01 T02860189  RH  056%=      5-min Rain = 0
KES1 201404Z 19003KT 29/19 A3005 RMK A01 T02860190  RH  056%=      5-min Rain = 0
KES1 201405Z 19004KT 29/19 A3005 RMK A01 T02860191  RH  056%=      5-min Rain = 0
KES1 201406Z 18004KT 29/19 A3005 RMK A01 T02860191  RH  056%=      5-min Rain = 0
KES1 201407Z 18004KT 29/19 A3005 RMK A01 T02860190  RH  056%=      5-min Rain = 0
KES1 201408Z 19003KT 29/19 A3005 RMK A01 T02870190  RH  056%=      5-min Rain = 0
KES1 201409Z 17003KT 29/19 A3005 RMK A01 T02880190  RH  055%=      5-min Rain = 0
KES1 201410Z 18004KT 29/19 A3005 RMK A01 T02880190  RH  055%=      5-min Rain = 0
KES1 201411Z 19003KT 29/19 A3005 RMK A01 T02880189  RH  055%=      5-min Rain = 0
KES1 201412Z 18003KT 29/19 A3005 RMK A01 T02890190  RH  055%=      5-min Rain = 0
KES1 201413Z 19003KT 29/19 A3005 RMK A01 T02900190  RH  055%=      5-min Rain = 0
KES1 201414Z 18004KT 29/19 A3005 RMK A01 T02900191  RH  055%=      5-min Rain = 0
KES1 201415Z 17004KT 29/19 A3005 RMK A01 T02910188  RH  054%=      5-min Rain = 0
KES1 201416Z 18004KT 29/19 A3005 RMK A01 T02910190  RH  055%=      5-min Rain = 0
KES1 201417Z 19005KT 29/19 A3005 RMK A01 T02920189  RH  054%=      5-min Rain = 0
KES1 201418Z 17004KT 29/19 A3005 RMK A01 T02920191  RH  055%=      5-min Rain = 0
KES1 201419Z 18004KT 29/19 A3005 RMK A01 T02920192  RH  055%=      5-min Rain = 0
KES1 201420Z 17004KT 29/19 A3005 RMK A01 T02940191  RH  054%=      5-min Rain = 0
KES1 201421Z 19005KT 30/19 A3005 RMK A01 T02950193  RH  054%=      5-min Rain = 0
KES1 201422Z 17006KT 30/19 A3005 RMK A01 T02950190  RH  053%=      5-min Rain = 0
KES1 201423Z 18005KT 29/19 A3005 RMK A01 T02940189  RH  053%=      5-min Rain = 0
KES1 201424Z 19004KT 29/19 A3005 RMK A01 T02930190  RH  054%=      5-min Rain = 0
KES1 201425Z 17005KT 29/19 A3005 RMK A01 T02930190  RH  054%=      5-min Rain = 0
KES1 201426Z 18006KT 29/19 A3005 RMK A01 T02940190  RH  054%=      5-min Rain = 0
KES1 201427Z 16004KT 30/19 A3005 RMK A01 T02950190  RH  053%=      5-min Rain = 0
KES1 201428Z 17006KT 30/19 A3005 RMK A01 T02960191  RH  053%=      5-min Rain = 0
KES1 201429Z 18005KT 30/19 A3005 RMK A01 T02960190  RH  053%=      5-min Rain = 0
KES1 201430Z 17005KT 30/19 A3005 RMK A01 T02960189  RH  052%=      5-min Rain = 0
KES1 201431Z 17005KT 30/19 A3005 RMK A01 T02970191  RH  053%=      5-min Rain = 0
KES1 201432Z 17005KT 30/19 A3005 RMK A01 T02990192  RH  053%=      5-min Rain = 0
KES1 201433Z 19004KT 30/19 A3005 RMK A01 T03000192  RH  052%=      5-min Rain = 0
KES1 201434Z 16004KT 30/19 A3005 RMK A01 T03000193  RH  053%=      5-min Rain = 0
KES1 201435Z 16005KT 30/19 A3005 RMK A01 T03010194  RH  053%=      5-min Rain = 0
KES1 201436Z 17004KT 30/19 A3004 RMK A01 T03020193  RH  052%=      5-min Rain = 0
KES1 201437Z 17005KT 30/19 A3004 RMK A01 T03030193  RH  052%=      5-min Rain = 0
KES1 201438Z 19005KT 30/19 A3004 RMK A01 T03030192  RH  051%=      5-min Rain = 0
KES1 201439Z 19006KT 30/19 A3004 RMK A01 T03020190  RH  051%=      5-min Rain = 0
KES1 201440Z 18005KT 30/19 A3004 RMK A01 T03000190  RH  052%=      5-min Rain = 0
KES1 201441Z 18004KT 30/19 A3004 RMK A01 T02990191  RH  052%=      5-min Rain = 0
KES1 201442Z 19004KT 30/19 A3004 RMK A01 T03000192  RH  052%=      5-min Rain = 0
KES1 201443Z 20005KT 30/19 A3004 RMK A01 T03010193  RH  052%=      5-min Rain = 0
KES1 201444Z 20005KT 30/19 A3004 RMK A01 T03030187  RH  050%=      5-min Rain = 0
KES1 201445Z 19005KT 30/19 A3004 RMK A01 T03030190  RH  051%=      5-min Rain = 0
KES1 201446Z 21007KT 30/19 A3004 RMK A01 T03030189  RH  050%=      5-min Rain = 0
KES1 201447Z 21007KT 30/19 A3004 RMK A01 T03030188  RH  050%=      5-min Rain = 0
KES1 201448Z 21006KT 30/19 A3004 RMK A01 T03030191  RH  051%=      5-min Rain = 0
KES1 201449Z 21006KT 30/19 A3004 RMK A01 T03040191  RH  051%=      5-min Rain = 0
KES1 201450Z 23005KT 31/19 A3004 RMK A01 T03050192  RH  051%=      5-min Rain = 0
KES1 201451Z 20005KT 31/19 A3004 RMK A01 T03080193  RH  050%=      5-min Rain = 0
KES1 201452Z 21008KT 31/19 A3004 RMK A01 T03090190  RH  049%=      5-min Rain = 0
KES1 201453Z 20006KT 31/19 A3004 RMK A01 T03080191  RH  050%=      5-min Rain = 0
KES1 201454Z 20005KT 31/19 A3004 RMK A01 T03070192  RH  050%=      5-min Rain = 0
KES1 201455Z 19007KT 31/19 A3004 RMK A01 T03080191  RH  050%=      5-min Rain = 0
KES1 201456Z 20008KT 31/19 A3004 RMK A01 T03090191  RH  050%=      5-min Rain = 0
KES1 201457Z 20008KT 31/19 A3004 RMK A01 T03090191  RH  050%=      5-min Rain = 0
KES1 201458Z 20007KT 31/19 A3004 RMK A01 T03090191  RH  049%=      5-min Rain = 0
KES1 201459Z 21006KT 31/19 A3004 RMK A01 T03100192  RH  050%=      5-min Rain = 0
KES1 201500Z 22009KT 31/19 A3004 RMK A01 T03110193  RH  049%=      5-min Rain = 0
KES1 201501Z 23013KT 31/19 A3004 RMK A01 T03140185  RH  046%=      5-min Rain = 0
KES1 201502Z 23010KT 32/18 A3004 RMK A01 T03160183  RH  045%=      5-min Rain = 0
KES1 201503Z 24010KT 32/19 A3004 RMK A01 T03180185  RH  045%=      5-min Rain = 0
KES1 201504Z 25009KT 32/18 A3004 RMK A01 T03190183  RH  044%=      5-min Rain = 0
KES1 201505Z 22008KT 32/19 A3004 RMK A01 T03210185  RH  045%=      5-min Rain = 0
KES1 201506Z 22007KT 32/19 A3004 RMK A01 T03240187  RH  044%=      5-min Rain = 0
KES1 201507Z 22009KT 33/19 A3004 RMK A01 T03250185  RH  043%=      5-min Rain = 0
KES1 201508Z 22011KT 33/18 A3004 RMK A01 T03260182  RH  043%=      5-min Rain = 0
KES1 201509Z 24008KT 33/18 A3004 RMK A01 T03250183  RH  043%=      5-min Rain = 0
KES1 201510Z 24009KT 33/18 A3004 RMK A01 T03250183  RH  043%=      5-min Rain = 0
KES1 201511Z 23009KT 33/18 A3004 RMK A01 T03260182  RH  042%=      5-min Rain = 0
KES1 201512Z 22010KT 33/18 A3004 RMK A01 T03260183  RH  043%=      5-min Rain = 0
KES1 201513Z 23008KT 33/18 A3004 RMK A01 T03260183  RH  043%=      5-min Rain = 0
KES1 201514Z 23008KT 33/19 A3004 RMK A01 T03260185  RH  043%=      5-min Rain = 0
KES1 201515Z 24008KT 33/18 A3004 RMK A01 T03280184  RH  043%=      5-min Rain = 0
KES1 201516Z 22011KT 33/18 A3004 RMK A01 T03290182  RH  042%=      5-min Rain = 0
KES1 201517Z 22011KT 33/18 A3004 RMK A01 T03290182  RH  042%=      5-min Rain = 0
KES1 201518Z 22010KT 33/18 A3004 RMK A01 T03290182  RH  042%=      5-min Rain = 0
KES1 201519Z 23011KT 33/18 A3004 RMK A01 T03310183  RH  042%=      5-min Rain = 0
KES1 201520Z 23011KT 33/18 A3004 RMK A01 T03310181  RH  041%=      5-min Rain = 0
KES1 201521Z 23012KT 33/18 A3004 RMK A01 T03310182  RH  041%=      5-min Rain = 0
KES1 201522Z 23011KT 33/18 A3004 RMK A01 T03300181  RH  041%=      5-min Rain = 0
KES1 201523Z 24009KT 33/18 A3004 RMK A01 T03300182  RH  042%=      5-min Rain = 0
KES1 201524Z 23010KT 33/18 A3004 RMK A01 T03330184  RH  041%=      5-min Rain = 0
KES1 201525Z 23013KT 33/18 A3004 RMK A01 T03340182  RH  040%=      5-min Rain = 0
KES1 201526Z 22010KT 33/18 A3004 RMK A01 T03320183  RH  041%=      5-min Rain = 0
KES1 201527Z 23010KT 33/18 A3004 RMK A01 T03320183  RH  041%=      5-min Rain = 0
KES1 201528Z 22011KT 33/18 A3004 RMK A01 T03330182  RH  041%=      5-min Rain = 0
KES1 201529Z 23009G14KT 33/18 A3004 RMK A01 T03320184  RH  041%=      5-min Rain = 0
KES1 201530Z 23014KT 33/18 A3004 RMK A01 T03320182  RH  041%=      5-min Rain = 0
KES1 201531Z 23011KT 33/18 A3004 RMK A01 T03310180  RH  041%=      5-min Rain = 0
KES1 201532Z 22013KT 33/18 A3004 RMK A01 T03300181  RH  041%=      5-min Rain = 0
KES1 201533Z 23013KT 33/18 A3004 RMK A01 T03300181  RH  041%=      5-min Rain = 0
KES1 201534Z 23012KT 33/18 A3004 RMK A01 T03300181  RH  041%=      5-min Rain = 0
KES1 201535Z 23013G18KT 33/18 A3004 RMK A01 T03310181  RH  041%=      5-min Rain = 0
KES1 201536Z 24012KT 33/18 A3004 RMK A01 T03310181  RH  041%=      5-min Rain = 0
KES1 201537Z 24011KT 33/18 A3004 RMK A01 T03310183  RH  041%=      5-min Rain = 0
KES1 201538Z 24010KT 33/18 A3004 RMK A01 T03320182  RH  041%=      5-min Rain = 0
KES1 201539Z 24013KT 33/18 A3004 RMK A01 T03320182  RH  041%=      5-min Rain = 0
KES1 201540Z 24010KT 33/18 A3004 RMK A01 T03330183  RH  041%=      5-min Rain = 0
KES1 201541Z 24007KT 33/19 A3004 RMK A01 T03340185  RH  041%=      5-min Rain = 0
KES1 201542Z 24011KT 34/19 A3004 RMK A01 T03380186  RH  041%=      5-min Rain = 0
KES1 201543Z 23012KT 34/18 A3004 RMK A01 T03390182  RH  040%=      5-min Rain = 0
KES1 201544Z 23010KT 34/18 A3004 RMK A01 T03370184  RH  040%=      5-min Rain = 0
KES1 201545Z 24009KT 34/18 A3004 RMK A01 T03380183  RH  040%=      5-min Rain = 0
KES1 201546Z 23011KT 34/18 A3004 RMK A01 T03380184  RH  040%=      5-min Rain = 0
KES1 201547Z 24010KT 34/18 A3004 RMK A01 T03390183  RH  040%=      5-min Rain = 0
KES1 201548Z 23011KT 34/18 A3004 RMK A01 T03390183  RH  040%=      5-min Rain = 0
KES1 201549Z 23009KT 34/18 A3004 RMK A01 T03380184  RH  040%=      5-min Rain = 0
KES1 201550Z 23011KT 34/19 A3004 RMK A01 T03400185  RH  040%=      5-min Rain = 0
KES1 201551Z 23011KT 34/18 A3004 RMK A01 T03400183  RH  039%=      5-min Rain = 0
KES1 201552Z 24010KT 34/18 A3004 RMK A01 T03400183  RH  039%=      5-min Rain = 0
KES1 201553Z 24010KT 34/18 A3004 RMK A01 T03410184  RH  040%=      5-min Rain = 0
KES1 201554Z 24010KT 34/18 A3004 RMK A01 T03410183  RH  039%=      5-min Rain = 0
KES1 201555Z 23009KT 34/18 A3004 RMK A01 T03410184  RH  039%=      5-min Rain = 0
KES1 201556Z 24012G17KT 34/18 A3004 RMK A01 T03410183  RH  039%=      5-min Rain = 0
KES1 201557Z 23009KT 34/18 A3004 RMK A01 T03410184  RH  040%=      5-min Rain = 0
KES1 201558Z 22008KT 34/18 A3004 RMK A01 T03420183  RH  039%=      5-min Rain = 0
KES1 201559Z 21008KT 34/19 A3004 RMK A01 T03440185  RH  039%=      5-min Rain = 0
KES1 201600Z 23008KT 34/18 A3004 RMK A01 T03440184  RH  039%=      5-min Rain = 0
KES1 201601Z 24010KT 35/18 A3004 RMK A01 T03450184  RH  039%=      5-min Rain = 0
KES1 201602Z 23008KT 35/18 A3004 RMK A01 T03450181  RH  038%=      5-min Rain = 0
KES1 201603Z 25007KT 34/18 A3004 RMK A01 T03440184  RH  039%=      5-min Rain = 0
KES1 201604Z 22009KT 35/18 A3004 RMK A01 T03450183  RH  038%=      5-min Rain = 0
KES1 201605Z 23009KT 35/18 A3004 RMK A01 T03460184  RH  039%=      5-min Rain = 0
KES1 201606Z 23007KT 35/19 A3004 RMK A01 T03460185  RH  039%=      5-min Rain = 0
KES1 201607Z 25007KT 35/18 A3004 RMK A01 T03470183  RH  038%=      5-min Rain = 0
KES1 201608Z 24008KT 35/18 A3004 RMK A01 T03470184  RH  038%=      5-min Rain = 0
KES1 201609Z 22008KT 35/19 A3004 RMK A01 T03470186  RH  039%=      5-min Rain = 0
KES1 201610Z 22004KT 35/19 A3004 RMK A01 T03470185  RH  038%=      5-min Rain = 0
KES1 201611Z 24005KT 35/19 A3004 RMK A01 T03490186  RH  038%=      5-min Rain = 0
KES1 201612Z 26009KT 35/18 A3004 RMK A01 T03500184  RH  038%=      5-min Rain = 0
KES1 201613Z 26008KT 35/18 A3004 RMK A01 T03500183  RH  038%=      5-min Rain = 0
KES1 201614Z 27009KT 35/18 A3004 RMK A01 T03500184  RH  038%=      5-min Rain = 0
KES1 201615Z 27010KT 35/18 A3004 RMK A01 T03510184  RH  038%=      5-min Rain = 0
KES1 201616Z 27009KT 35/18 A3004 RMK A01 T03510184  RH  037%=      5-min Rain = 0
KES1 201617Z 26007KT 35/18 A3004 RMK A01 T03500183  RH  037%=      5-min Rain = 0
KES1 201618Z 25006KT 35/19 A3004 RMK A01 T03500187  RH  038%=      5-min Rain = 0
KES1 201619Z 27005KT 35/19 A3004 RMK A01 T03530187  RH  038%=      5-min Rain = 0
KES1 201620Z 27005KT 36/19 A3004 RMK A01 T03560185  RH  037%=      5-min Rain = 0
KES1 201621Z 27007KT 36/19 A3004 RMK A01 T03560186  RH  037%=      5-min Rain = 0
KES1 201622Z 25008KT 36/19 A3004 RMK A01 T03570187  RH  037%=      5-min Rain = 0
KES1 201623Z 22008KT 36/18 A3004 RMK A01 T03580183  RH  036%=      5-min Rain = 0
KES1 201624Z 23006KT 36/18 A3004 RMK A01 T03580182  RH  036%=      5-min Rain = 0
KES1 201625Z 24007KT 36/18 A3004 RMK A01 T03570183  RH  036%=      5-min Rain = 0
KES1 201626Z 23009KT 36/18 A3004 RMK A01 T03560181  RH  036%=      5-min Rain = 0
KES1 201627Z 22011KT 36/18 A3004 RMK A01 T03550184  RH  036%=      5-min Rain = 0
KES1 201628Z 24011KT 36/18 A3004 RMK A01 T03570183  RH  036%=      5-min Rain = 0
KES1 201629Z 24008KT 36/18 A3004 RMK A01 T03580183  RH  036%=      5-min Rain = 0
KES1 201630Z 25009KT 36/18 A3004 RMK A01 T03570180  RH  035%=      5-min Rain = 0
KES1 201631Z 25007KT 36/18 A3004 RMK A01 T03570182  RH  036%=      5-min Rain = 0
KES1 201632Z 24006KT 36/18 A3004 RMK A01 T03570181  RH  036%=      5-min Rain = 0
KES1 201633Z 24006KT 36/18 A3004 RMK A01 T03570180  RH  035%=      5-min Rain = 0
KES1 201634Z 22006KT 36/18 A3004 RMK A01 T03550181  RH  036%=      5-min Rain = 0
KES1 201635Z 23007KT 36/18 A3004 RMK A01 T03570184  RH  036%=      5-min Rain = 0
KES1 201636Z 22005KT 36/18 A3004 RMK A01 T03580183  RH  036%=      5-min Rain = 0
KES1 201637Z 23008KT 36/18 A3004 RMK A01 T03590184  RH  036%=      5-min Rain = 0
KES1 201638Z 21008KT 36/18 A3004 RMK A01 T03600178  RH  034%=      5-min Rain = 0
KES1 201639Z 20008KT 36/18 A3004 RMK A01 T03580180  RH  035%=      5-min Rain = 0
KES1 201640Z 20007KT 36/18 A3004 RMK A01 T03580181  RH  035%=      5-min Rain = 0
KES1 201641Z 21007KT 36/18 A3004 RMK A01 T03590182  RH  035%=      5-min Rain = 0
KES1 201642Z 26007KT 36/18 A3004 RMK A01 T03600180  RH  035%=      5-min Rain = 0
KES1 201643Z 25005KT 36/18 A3004 RMK A01 T03600179  RH  034%=      5-min Rain = 0
KES1 201644Z 22004KT 36/18 A3004 RMK A01 T03590180  RH  035%=      5-min Rain = 0
KES1 201645Z 21008KT 36/18 A3004 RMK A01 T03600181  RH  035%=      5-min Rain = 0
KES1 201646Z 21008KT 36/18 A3004 RMK A01 T03610180  RH  035%=      5-min Rain = 0
KES1 201647Z 20005KT 36/18 A3004 RMK A01 T03600181  RH  035%=      5-min Rain = 0
KES1 201648Z 21006KT 36/18 A3004 RMK A01 T03610180  RH  035%=      5-min Rain = 0
KES1 201649Z 21008KT 36/18 A3004 RMK A01 T03600179  RH  034%=      5-min Rain = 0
KES1 201650Z 22007KT 36/18 A3004 RMK A01 T03610184  RH  035%=      5-min Rain = 0
KES1 201651Z 24004KT 36/18 A3004 RMK A01 T03640183  RH  035%=      5-min Rain = 0
KES1 201652Z 22007KT 37/18 A3004 RMK A01 T03660183  RH  034%=      5-min Rain = 0
KES1 201653Z 21008KT 37/18 A3004 RMK A01 T03660179  RH  034%=      5-min Rain = 0
KES1 201654Z 20005KT 36/18 A3004 RMK A01 T03630180  RH  034%=      5-min Rain = 0
KES1 201655Z 19004KT 36/18 A3004 RMK A01 T03620178  RH  034%=      5-min Rain = 0
KES1 201656Z 20007KT 36/18 A3004 RMK A01 T03610179  RH  034%=      5-min Rain = 0
KES1 201657Z 20008KT 36/18 A3004 RMK A01 T03610177  RH  034%=      5-min Rain = 0
KES1 201658Z 21008KT 36/18 A3004 RMK A01 T03610179  RH  034%=      5-min Rain = 0
KES1 201659Z 21007KT 36/18 A3003 RMK A01 T03620175  RH  033%=      5-min Rain = 0
KES1 201700Z 19007KT 36/18 A3004 RMK A01 T03600177  RH  034%=      5-min Rain = 0
KES1 201701Z 19005KT 36/18 A3003 RMK A01 T03610181  RH  035%=      5-min Rain = 0
KES1 201702Z 20006KT 37/18 A3003 RMK A01 T03660183  RH  034%=      5-min Rain = 0
KES1 201703Z 19006KT 37/18 A3003 RMK A01 T03680180  RH  033%=      5-min Rain = 0
KES1 201704Z 19005KT 37/18 A3003 RMK A01 T03680181  RH  034%=      5-min Rain = 0
KES1 201705Z 19004KT 37/18 A3003 RMK A01 T03660182  RH  034%=      5-min Rain = 0
KES1 201706Z 19006KT 37/18 A3003 RMK A01 T03660182  RH  034%=      5-min Rain = 0
KES1 201707Z 20008KT 37/19 A3003 RMK A01 T03670185  RH  034%=      5-min Rain = 0
KES1 201708Z 22008KT 37/18 A3003 RMK A01 T03680180  RH  033%=      5-min Rain = 0
KES1 201709Z 21007KT 37/18 A3003 RMK A01 T03680181  RH  034%=      5-min Rain = 0
KES1 201710Z 21006KT 37/18 A3004 RMK A01 T03680179  RH  033%=      5-min Rain = 0
KES1 201711Z 20006KT 37/18 A3004 RMK A01 T03700178  RH  032%=      5-min Rain = 0
KES1 201712Z 19007KT 37/18 A3004 RMK A01 T03700179  RH  033%=      5-min Rain = 0
KES1 201713Z 18008KT 37/18 A3004 RMK A01 T03700178  RH  032%=      5-min Rain = 0
KES1 201714Z 20005KT 37/18 A3004 RMK A01 T03690176  RH  032%=      5-min Rain = 0
KES1 201715Z 24002KT 37/17 A3004 RMK A01 T03670172  RH  032%=      5-min Rain = 0
KES1 201716Z 10000KT 36/17 A3003 RMK A01 T03640174  RH  033%=      5-min Rain = 0
KES1 201717Z 21003KT 36/17 A3003 RMK A01 T03630173  RH  033%=      5-min Rain = 0
KES1 201718Z 22003KT 36/17 A3003 RMK A01 T03630173  RH  033%=      5-min Rain = 0
KES1 201719Z 22005KT 36/17 A3003 RMK A01 T03640173  RH  033%=      5-min Rain = 0
KES1 201720Z 22006KT 37/18 A3003 RMK A01 T03650177  RH  033%=      5-min Rain = 0
KES1 201721Z 22007KT 37/18 A3003 RMK A01 T03670180  RH  033%=      5-min Rain = 0
KES1 201722Z 21008KT 37/18 A3003 RMK A01 T03710175  RH  032%=      5-min Rain = 0
KES1 201723Z 21006KT 37/17 A3003 RMK A01 T03710173  RH  031%=      5-min Rain = 0
KES1 201724Z 17007KT 37/18 A3003 RMK A01 T03690175  RH  032%=      5-min Rain = 0
KES1 201725Z 19007KT 37/17 A3003 RMK A01 T03680173  RH  032%=      5-min Rain = 0
KES1 201726Z 14007KT 37/18 A3003 RMK A01 T03680180  RH  033%=      5-min Rain = 0
KES1 201727Z 16009KT 37/18 A3003 RMK A01 T03700180  RH  033%=      5-min Rain = 0
KES1 201728Z 15007KT 37/18 A3003 RMK A01 T03700180  RH  033%=      5-min Rain = 0
KES1 201729Z 13006KT 37/18 A3003 RMK A01 T03700179  RH  033%=      5-min Rain = 0
KES1 201730Z 12006KT 37/18 A3003 RMK A01 T03690177  RH  033%=      5-min Rain = 0
KES1 201731Z 15006KT 37/18 A3003 RMK A01 T03660179  RH  033%=      5-min Rain = 0
KES1 201732Z 18008KT 37/18 A3003 RMK A01 T03680177  RH  033%=      5-min Rain = 0
KES1 201733Z 18009KT 37/17 A3003 RMK A01 T03690173  RH  032%=      5-min Rain = 0
KES1 201734Z 18006KT 37/17 A3003 RMK A01 T03700174  RH  032%=      5-min Rain = 0
KES1 201735Z 16006KT 37/18 A3003 RMK A01 T03710176  RH  032%=      5-min Rain = 0
KES1 201736Z 17005KT 37/18 A3003 RMK A01 T03740175  RH  031%=      5-min Rain = 0
KES1 201737Z 20007KT 37/17 A3003 RMK A01 T03740170  RH  030%=      5-min Rain = 0
KES1 201738Z 23009KT 37/17 A3003 RMK A01 T03700174  RH  032%=      5-min Rain = 0
KES1 201739Z 20007KT 37/18 A3003 RMK A01 T03710176  RH  032%=      5-min Rain = 0
KES1 201740Z 19007KT 37/18 A3003 RMK A01 T03730177  RH  032%=      5-min Rain = 0
KES1 201741Z 18006KT 37/17 A3003 RMK A01 T03740174  RH  031%=      5-min Rain = 0
KES1 201742Z 17007KT 37/18 A3003 RMK A01 T03720176  RH  032%=      5-min Rain = 0
KES1 201743Z 18010KT 37/18 A3003 RMK A01 T03720175  RH  031%=      5-min Rain = 0
KES1 201744Z 18007KT 37/18 A3003 RMK A01 T03710175  RH  032%=      5-min Rain = 0
KES1 201745Z 15003KT 37/17 A3003 RMK A01 T03700173  RH  031%=      5-min Rain = 0
KES1 201746Z 14001KT 37/17 A3003 RMK A01 T03700172  RH  031%=      5-min Rain = 0
KES1 201747Z 18004KT 37/18 A3003 RMK A01 T03710178  RH  032%=      5-min Rain = 0
KES1 201748Z 18009KT 37/18 A3003 RMK A01 T03730176  RH  032%=      5-min Rain = 0
KES1 201749Z 19005KT 37/18 A3003 RMK A01 T03730179  RH  032%=      5-min Rain = 0
KES1 201750Z 19003KT 37/18 A3003 RMK A01 T03730178  RH  032%=      5-min Rain = 0
KES1 201751Z 19005KT 37/18 A3003 RMK A01 T03730179  RH  032%=      5-min Rain = 0
KES1 201752Z 18005KT 37/18 A3003 RMK A01 T03740181  RH  032%=      5-min Rain = 0
KES1 201753Z 20004KT 38/18 A3003 RMK A01 T03760180  RH  032%=      5-min Rain = 0
KES1 201754Z 18004KT 38/18 A3003 RMK A01 T03750175  RH  031%=      5-min Rain = 0
KES1 201755Z 14006KT 37/18 A3003 RMK A01 T03720177  RH  032%=      5-min Rain = 0
KES1 201756Z 14008G14KT 37/18 A3003 RMK A01 T03720179  RH  032%=      5-min Rain = 0
KES1 201757Z 19008KT 37/17 A3003 RMK A01 T03720172  RH  031%=      5-min Rain = 0
KES1 201758Z 22004KT 37/17 A3003 RMK A01 T03710171  RH  031%=      5-min Rain = 0
KES1 201759Z 14003KT 37/18 A3003 RMK A01 T03700175  RH  032%=      5-min Rain = 0
KES1 201800Z 16003KT 37/18 A3003 RMK A01 T03710177  RH  032%=      5-min Rain = 0
KES1 201801Z 12004KT 37/18 A3003 RMK A01 T03730180  RH  032%=      5-min Rain = 0
KES1 201802Z 16005KT 38/18 A3003 RMK A01 T03770182  RH  032%=      5-min Rain = 0
KES1 201803Z 15007KT 38/18 A3003 RMK A01 T03790180  RH  031%=      5-min Rain = 0
KES1 201804Z 16005KT 38/18 A3003 RMK A01 T03810181  RH  031%=      5-min Rain = 0
KES1 201805Z 17007KT 38/18 A3003 RMK A01 T03830181  RH  031%=      5-min Rain = 0
KES1 201806Z 19007KT 38/18 A3003 RMK A01 T03840176  RH  030%=      5-min Rain = 0
KES1 201807Z 18006KT 38/18 A3003 RMK A01 T03790175  RH  030%=      5-min Rain = 0
KES1 201808Z 16006KT 38/18 A3003 RMK A01 T03770177  RH  031%=      5-min Rain = 0
KES1 201809Z 17007KT 38/17 A3003 RMK A01 T03770173  RH  030%=      5-min Rain = 0
KES1 201810Z 16010KT 38/18 A3003 RMK A01 T03780177  RH  031%=      5-min Rain = 0
KES1 201811Z 18006KT 38/17 A3003 RMK A01 T03790172  RH  030%=      5-min Rain = 0
KES1 201812Z 17004KT 38/17 A3003 RMK A01 T03760168  RH  030%=      5-min Rain = 0
KES1 201813Z 16005KT 37/17 A3003 RMK A01 T03730172  RH  031%=      5-min Rain = 0
KES1 201814Z 16008KT 37/17 A3003 RMK A01 T03740171  RH  030%=      5-min Rain = 0
KES1 201815Z 14006KT 38/17 A3003 RMK A01 T03750170  RH  030%=      5-min Rain = 0
KES1 201816Z 16004KT 37/17 A3003 RMK A01 T03740169  RH  030%=      5-min Rain = 0
KES1 201817Z 15009KT 37/17 A3003 RMK A01 T03740173  RH  031%=      5-min Rain = 0
KES1 201818Z 15012KT 38/17 A3003 RMK A01 T03750173  RH  031%=      5-min Rain = 0
KES1 201819Z 16009KT 38/17 A3003 RMK A01 T03770173  RH  030%=      5-min Rain = 0
KES1 201820Z 16007KT 38/18 A3003 RMK A01 T03790178  RH  031%=      5-min Rain = 0
KES1 201821Z 14006KT 38/18 A3003 RMK A01 T03810175  RH  030%=      5-min Rain = 0
KES1 201822Z 13010KT 38/17 A3003 RMK A01 T03810174  RH  030%=      5-min Rain = 0
KES1 201823Z 14010KT 38/17 A3002 RMK A01 T03780169  RH  029%=      5-min Rain = 0
KES1 201824Z 15010KT 38/17 A3003 RMK A01 T03760169  RH  030%=      5-min Rain = 0
KES1 201825Z 16007KT 38/17 A3003 RMK A01 T03760169  RH  030%=      5-min Rain = 0
KES1 201826Z 16008KT 38/17 A3003 RMK A01 T03770170  RH  030%=      5-min Rain = 0
KES1 201827Z 16007KT 38/17 A3003 RMK A01 T03760173  RH  030%=      5-min Rain = 0
KES1 201828Z 19009KT 38/17 A3003 RMK A01 T03770172  RH  030%=      5-min Rain = 0
KES1 201829Z 18005KT 38/17 A3002 RMK A01 T03760168  RH  030%=      5-min Rain = 0
KES1 201830Z 15005KT 38/17 A3003 RMK A01 T03750173  RH  031%=      5-min Rain = 0
KES1 201831Z 14012KT 38/17 A3002 RMK A01 T03760174  RH  030%=      5-min Rain = 0
KES1 201832Z 15013KT 38/17 A3002 RMK A01 T03770173  RH  030%=      5-min Rain = 0
KES1 201833Z 15012KT 38/17 A3002 RMK A01 T03760174  RH  031%=      5-min Rain = 0
KES1 201834Z 14013KT 38/18 A3002 RMK A01 T03760175  RH  031%=      5-min Rain = 0
KES1 201835Z 15010KT 38/18 A3002 RMK A01 T03770176  RH  031%=      5-min Rain = 0
KES1 201836Z 15008KT 38/17 A3002 RMK A01 T03780174  RH  030%=      5-min Rain = 0
KES1 201837Z 14007KT 38/18 A3002 RMK A01 T03780177  RH  031%=      5-min Rain = 0
KES1 201838Z 18003KT 38/18 A3002 RMK A01 T03790177  RH  031%=      5-min Rain = 0
KES1 201839Z 13007KT 38/18 A3002 RMK A01 T03800177  RH  030%=      5-min Rain = 0
KES1 201840Z 12006KT 38/18 A3002 RMK A01 T03800177  RH  031%=      5-min Rain = 0
KES1 201841Z 13006KT 38/18 A3002 RMK A01 T03790177  RH  031%=      5-min Rain = 0
KES1 201842Z 13005KT 38/18 A3002 RMK A01 T03790176  RH  031%=      5-min Rain = 0
KES1 201843Z 14007KT 38/17 A3002 RMK A01 T03780174  RH  030%=      5-min Rain = 0
KES1 201844Z 16006KT 38/18 A3002 RMK A01 T03760176  RH  031%=      5-min Rain = 0
KES1 201845Z 17007KT 38/18 A3002 RMK A01 T03780177  RH  031%=      5-min Rain = 0
KES1 201846Z 16005KT 38/17 A3002 RMK A01 T03800174  RH  030%=      5-min Rain = 0
KES1 201847Z 14005KT 38/18 A3002 RMK A01 T03800177  RH  031%=      5-min Rain = 0
KES1 201848Z 16005KT 38/18 A3002 RMK A01 T03800177  RH  031%=      5-min Rain = 0
KES1 201849Z 12005KT 38/18 A3002 RMK A01 T03810176  RH  030%=      5-min Rain = 0
KES1 201850Z 13006KT 38/18 A3002 RMK A01 T03800180  RH  031%=      5-min Rain = 0
KES1 201851Z 15002KT 38/17 A3002 RMK A01 T03800173  RH  030%=      5-min Rain = 0
KES1 201852Z 11005KT 38/18 A3002 RMK A01 T03800175  RH  030%=      5-min Rain = 0
KES1 201853Z 10005KT 38/17 A3002 RMK A01 T03780172  RH  030%=      5-min Rain = 0
KES1 201854Z 12004KT 37/17 A3002 RMK A01 T03740173  RH  031%=      5-min Rain = 0
KES1 201855Z 08002KT 37/17 A3002 RMK A01 T03740172  RH  031%=      5-min Rain = 0
KES1 201856Z 10007KT 37/17 A3002 RMK A01 T03740173  RH  031%=      5-min Rain = 0
KES1 201857Z 10009KT 38/17 A3002 RMK A01 T03760170  RH  030%=      5-min Rain = 0
KES1 201858Z 09009KT 38/17 A3001 RMK A01 T03760171  RH  030%=      5-min Rain = 0
KES1 201859Z 13010KT 38/18 A3001 RMK A01 T03770175  RH  031%=      5-min Rain = 0
KES1 201900Z 15010KT 38/17 A3002 RMK A01 T03800171  RH  029%=      5-min Rain = 0
KES1 201901Z 16008KT 38/17 A3001 RMK A01 T03800174  RH  030%=      5-min Rain = 0
KES1 201902Z 16009KT 38/18 A3001 RMK A01 T03810176  RH  030%=      5-min Rain = 0
KES1 201903Z 14010KT 38/17 A3002 RMK A01 T03830174  RH  029%=      5-min Rain = 0
KES1 201904Z 13008KT 38/18 A3002 RMK A01 T03830179  RH  030%=      5-min Rain = 0
KES1 201905Z 13009KT 38/17 A3002 RMK A01 T03840174  RH  029%=      5-min Rain = 0
KES1 201906Z 13008KT 38/18 A3001 RMK A01 T03840175  RH  030%=      5-min Rain = 0
KES1 201907Z 16007KT 38/18 A3002 RMK A01 T03840178  RH  030%=      5-min Rain = 0
KES1 201908Z 15004KT 39/18 A3002 RMK A01 T03870176  RH  029%=      5-min Rain = 0
KES1 201909Z 15009KT 39/18 A3001 RMK A01 T03880177  RH  029%=      5-min Rain = 0
KES1 201910Z 17008KT 39/17 A3001 RMK A01 T03880171  RH  028%=      5-min Rain = 0
KES1 201911Z 16006KT 39/17 A3001 RMK A01 T03860173  RH  029%=      5-min Rain = 0
KES1 201912Z 15007KT 39/18 A3001 RMK A01 T03850175  RH  029%=      5-min Rain = 0
KES1 201913Z 13009KT 39/17 A3001 RMK A01 T03860171  RH  028%=      5-min Rain = 0
KES1 201914Z 16010KT 38/17 A3001 RMK A01 T03840171  RH  029%=      5-min Rain = 0
KES1 201915Z 18010KT 38/17 A3001 RMK A01 T03840170  RH  029%=      5-min Rain = 0
KES1 201916Z 19009KT 38/17 A3001 RMK A01 T03840167  RH  028%=      5-min Rain = 0
KES1 201917Z 18007KT 38/16 A3001 RMK A01 T03810164  RH  028%=      5-min Rain = 0
KES1 201918Z 18008G14KT 38/17 A3001 RMK A01 T03800170  RH  029%=      5-min Rain = 0
KES1 201919Z 17010KT 38/17 A3001 RMK A01 T03830171  RH  029%=      5-min Rain = 0
KES1 201920Z 18011KT 39/17 A3001 RMK A01 T03850168  RH  028%=      5-min Rain = 0
KES1 201921Z 17007KT 39/17 A3001 RMK A01 T03850173  RH  029%=      5-min Rain = 0
KES1 201922Z 16013KT 39/17 A3001 RMK A01 T03860170  RH  028%=      5-min Rain = 0
KES1 201923Z 16008KT 39/17 A3001 RMK A01 T03850169  RH  028%=      5-min Rain = 0
KES1 201924Z 18009KT 39/17 A3001 RMK A01 T03850168  RH  028%=      5-min Rain = 0
KES1 201925Z 19009KT 39/17 A3001 RMK A01 T03850166  RH  028%=      5-min Rain = 0
KES1 201926Z 19007KT 38/16 A3001 RMK A01 T03840163  RH  027%=      5-min Rain = 0
KES1 201927Z 18007KT 38/17 A3001 RMK A01 T03830169  RH  029%=      5-min Rain = 0
KES1 201928Z 17005KT 38/17 A3001 RMK A01 T03820168  RH  028%=      5-min Rain = 0
KES1 201929Z 18008KT 38/17 A3001 RMK A01 T03820170  RH  029%=      5-min Rain = 0
KES1 201930Z 17007G12KT 39/17 A3001 RMK A01 T03850169  RH  028%=      5-min Rain = 0
KES1 201931Z 14007G13KT 39/17 A3001 RMK A01 T03870168  RH  028%=      5-min Rain = 0
KES1 201932Z 15011KT 39/17 A3001 RMK A01 T03870173  RH  029%=      5-min Rain = 0
KES1 201933Z 14010KT 39/17 A3001 RMK A01 T03880173  RH  029%=      5-min Rain = 0
KES1 201934Z 13011KT 39/17 A3001 RMK A01 T03860170  RH  028%=      5-min Rain = 0
KES1 201935Z 13011KT 38/17 A3001 RMK A01 T03830174  RH  030%=      5-min Rain = 0
KES1 201936Z 14010KT 39/17 A3001 RMK A01 T03850173  RH  029%=      5-min Rain = 0
KES1 201937Z 13011KT 39/17 A3001 RMK A01 T03870171  RH  028%=      5-min Rain = 0
KES1 201938Z 13011KT 39/17 A30 RMK A01 T03860172  RH  029%=      5-min Rain = 0
KES1 201939Z 12009KT 38/17 A30 RMK A01 T03820171  RH  029%=      5-min Rain = 0
KES1 201940Z 12010KT 38/17 A30 RMK A01 T03830173  RH  029%=      5-min Rain = 0
KES1 201941Z 13009KT 39/17 A30 RMK A01 T03850173  RH  029%=      5-min Rain = 0
KES1 201942Z 16011KT 39/18 A30 RMK A01 T03870176  RH  029%=      5-min Rain = 0
KES1 201943Z 16012KT 39/18 A30 RMK A01 T03870175  RH  029%=      5-min Rain = 0
KES1 201944Z 14008KT 38/18 A30 RMK A01 T03840176  RH  030%=      5-min Rain = 0
KES1 201945Z 15011KT 38/18 A30 RMK A01 T03830177  RH  030%=      5-min Rain = 0
KES1 201946Z 15009KT 38/17 A30 RMK A01 T03830173  RH  029%=      5-min Rain = 0
KES1 201947Z 17007KT 38/17 A30 RMK A01 T03830174  RH  030%=      5-min Rain = 0
KES1 201948Z 17004KT 38/17 A30 RMK A01 T03820173  RH  029%=      5-min Rain = 0
KES1 201949Z 16007KT 38/18 A30 RMK A01 T03820177  RH  030%=      5-min Rain = 0
KES1 201950Z 16011KT 38/18 A30 RMK A01 T03830179  RH  030%=      5-min Rain = 0
KES1 201951Z 15010KT 39/18 A30 RMK A01 T03850177  RH  030%=      5-min Rain = 0
KES1 201952Z 14011KT 39/18 A30 RMK A01 T03850176  RH  030%=      5-min Rain = 0
KES1 201953Z 15009KT 38/18 A30 RMK A01 T03840179  RH  030%=      5-min Rain = 0
KES1 201954Z 15012KT 38/18 A30 RMK A01 T03840176  RH  030%=      5-min Rain = 0
KES1 201955Z 15010KT 38/18 A30 RMK A01 T03840176  RH  030%=      5-min Rain = 0
KES1 201956Z 13008KT 38/17 A30 RMK A01 T03830173  RH  029%=      5-min Rain = 0
KES1 201957Z 14006KT 38/18 A30 RMK A01 T03820178  RH  031%=      5-min Rain = 0
KES1 201958Z 15009KT 38/18 A30 RMK A01 T03840179  RH  030%=      5-min Rain = 0
KES1 201959Z 15007KT 39/18 A30 RMK A01 T03850178  RH  030%=      5-min Rain = 0
KES1 202000Z 15005KT 39/18 A30 RMK A01 T03860180  RH  030%=      5-min Rain = 0
KES1 202001Z 16004KT 39/18 A30 RMK A01 T03890182  RH  030%=      5-min Rain = 0
KES1 202002Z 14003KT 39/18 A2999 RMK A01 T03910177  RH  029%=      5-min Rain = 0
KES1 202003Z 14003KT 39/18 A2999 RMK A01 T03910184  RH  030%=      5-min Rain = 0
KES1 202004Z 10003KT 39/18 A2999 RMK A01 T03930178  RH  029%=      5-min Rain = 0
KES1 202005Z 12004KT 39/18 A2999 RMK A01 T03920180  RH  029%=      5-min Rain = 0
KES1 202006Z 15005KT 39/18 A2999 RMK A01 T03910177  RH  029%=      5-min Rain = 0
KES1 202007Z 15004KT 39/18 A2999 RMK A01 T03890175  RH  029%=      5-min Rain = 0
KES1 202008Z 14005KT 39/18 A2999 RMK A01 T03880176  RH  029%=      5-min Rain = 0
KES1 202009Z 13007G15KT 39/18 A2999 RMK A01 T03880181  RH  030%=      5-min Rain = 0
KES1 202010Z 14010KT 39/18 A2999 RMK A01 T03890175  RH  029%=      5-min Rain = 0
KES1 202011Z 15011KT 39/17 A2999 RMK A01 T03900174  RH  028%=      5-min Rain = 0
KES1 202012Z 15010KT 39/18 A2999 RMK A01 T03890175  RH  029%=      5-min Rain = 0
KES1 202013Z 14011KT 39/18 A2999 RMK A01 T03890175  RH  029%=      5-min Rain = 0
KES1 202014Z 15011KT 39/17 A2999 RMK A01 T03880173  RH  028%=      5-min Rain = 0
KES1 202015Z 15010KT 39/17 A2999 RMK A01 T03860174  RH  029%=      5-min Rain = 0
KES1 202016Z 15008KT 39/18 A2999 RMK A01 T03850175  RH  029%=      5-min Rain = 0
KES1 202017Z 15006KT 39/17 A2999 RMK A01 T03850172  RH  029%=      5-min Rain = 0
KES1 202018Z 16005KT 39/17 A2999 RMK A01 T03850173  RH  029%=      5-min Rain = 0
KES1 202019Z 16005KT 39/18 A2999 RMK A01 T03850175  RH  029%=      5-min Rain = 0
KES1 202020Z 13004KT 39/17 A2999 RMK A01 T03860172  RH  029%=      5-min Rain = 0
KES1 202021Z 13005KT 39/17 A2999 RMK A01 T03860172  RH  029%=      5-min Rain = 0
KES1 202022Z 14003KT 38/17 A2998 RMK A01 T03840173  RH  029%=      5-min Rain = 0
KES1 202023Z 20003KT 39/17 A2998 RMK A01 T03850174  RH  029%=      5-min Rain = 0
KES1 202024Z 16002KT 39/18 A2998 RMK A01 T03860176  RH  029%=      5-min Rain = 0
KES1 202025Z 15002KT 39/18 A2998 RMK A01 T03880176  RH  029%=      5-min Rain = 0
KES1 202026Z 17011G16KT 39/18 A2998 RMK A01 T03900176  RH  029%=      5-min Rain = 0
KES1 202027Z 16008KT 39/17 A2998 RMK A01 T03900173  RH  028%=      5-min Rain = 0
KES1 202028Z 15007KT 39/17 A2998 RMK A01 T03880173  RH  029%=      5-min Rain = 0
KES1 202029Z 16006KT 39/17 A2998 RMK A01 T03870174  RH  029%=      5-min Rain = 0
KES1 202030Z 16007KT 39/18 A2998 RMK A01 T03880178  RH  030%=      5-min Rain = 0
KES1 202031Z 14007KT 39/18 A2998 RMK A01 T03900176  RH  029%=      5-min Rain = 0
KES1 202032Z 14006KT 39/17 A2998 RMK A01 T03890172  RH  028%=      5-min Rain = 0
KES1 202033Z 14007KT 39/18 A2998 RMK A01 T03870176  RH  029%=      5-min Rain = 0
KES1 202034Z 15009KT 39/18 A2998 RMK A01 T03870175  RH  029%=      5-min Rain = 0
KES1 202035Z 14009KT 39/17 A2998 RMK A01 T03870172  RH  028%=      5-min Rain = 0
KES1 202036Z 15011KT 39/18 A2998 RMK A01 T03870175  RH  029%=      5-min Rain = 0
KES1 202037Z 16009KT 39/17 A2998 RMK A01 T03870173  RH  029%=      5-min Rain = 0
KES1 202038Z 14011KT 39/17 A2998 RMK A01 T03880173  RH  029%=      5-min Rain = 0
KES1 202039Z 14013KT 39/17 A2998 RMK A01 T03880173  RH  029%=      5-min Rain = 0
KES1 202040Z 16009KT 39/17 A2998 RMK A01 T03880172  RH  028%=      5-min Rain = 0
KES1 202041Z 17011KT 39/17 A2998 RMK A01 T03870171  RH  028%=      5-min Rain = 0
KES1 202042Z 17009KT 39/17 A2998 RMK A01 T03880174  RH  029%=      5-min Rain = 0
KES1 202043Z 15009KT 39/17 A2998 RMK A01 T03900172  RH  028%=      5-min Rain = 0
KES1 202044Z 16009KT 39/17 A2998 RMK A01 T03900169  RH  028%=      5-min Rain = 0
KES1 202045Z 16007KT 39/17 A2998 RMK A01 T03870170  RH  028%=      5-min Rain = 0
KES1 202046Z 16004KT 39/17 A2997 RMK A01 T03870171  RH  028%=      5-min Rain = 0
KES1 202047Z 15003KT 39/17 A2997 RMK A01 T03850169  RH  028%=      5-min Rain = 0
KES1 202048Z 15004KT 39/17 A2997 RMK A01 T03850169  RH  028%=      5-min Rain = 0
KES1 202049Z 15005KT 39/17 A2997 RMK A01 T03850167  RH  028%=      5-min Rain = 0
KES1 202050Z 12003KT 38/17 A2997 RMK A01 T03840166  RH  028%=      5-min Rain = 0
KES1 202051Z 13005G12KT 38/17 A2997 RMK A01 T03830169  RH  029%=      5-min Rain = 0
KES1 202052Z 13007KT 38/17 A2997 RMK A01 T03840168  RH  028%=      5-min Rain = 0
KES1 202053Z 13009KT 38/17 A2997 RMK A01 T03840168  RH  028%=      5-min Rain = 0
KES1 202054Z 15010KT 39/17 A2997 RMK A01 T03850171  RH  029%=      5-min Rain = 0
KES1 202055Z 14010KT 39/17 A2997 RMK A01 T03870172  RH  029%=      5-min Rain = 0
KES1 202056Z 14008G14KT 39/17 A2997 RMK A01 T03880171  RH  028%=      5-min Rain = 0
KES1 202057Z 14010KT 39/17 A2997 RMK A01 T03890170  RH  028%=      5-min Rain = 0
KES1 202058Z 14011KT 39/17 A2997 RMK A01 T03880168  RH  028%=      5-min Rain = 0
KES1 202059Z 14009KT 39/17 A2997 RMK A01 T03870172  RH  029%=      5-min Rain = 0
KES1 202100Z 11008KT 39/17 A2997 RMK A01 T03880169  RH  028%=      5-min Rain = 0
KES1 202101Z 11010G16KT 39/17 A2996 RMK A01 T03870169  RH  028%=      5-min Rain = 0
KES1 202102Z 19013KT 39/17 A2996 RMK A01 T03870170  RH  028%=      5-min Rain = 0
KES1 202103Z 18011G17KT 39/17 A2997 RMK A01 T03890171  RH  028%=      5-min Rain = 0
KES1 202104Z 14011KT 39/17 A2997 RMK A01 T03910174  RH  028%=      5-min Rain = 0
KES1 202105Z 13013KT 39/17 A2997 RMK A01 T03920169  RH  027%=      5-min Rain = 0
KES1 202106Z 13010KT 39/17 A2997 RMK A01 T03890169  RH  028%=      5-min Rain = 0
KES1 202107Z 13010KT 39/17 A2997 RMK A01 T03880167  RH  027%=      5-min Rain = 0
KES1 202108Z 14011KT 39/17 A2997 RMK A01 T03860170  RH  028%=      5-min Rain = 0
KES1 202109Z 15010KT 39/17 A2997 RMK A01 T03870170  RH  028%=      5-min Rain = 0
KES1 202110Z 13010KT 39/17 A2997 RMK A01 T03890168  RH  028%=      5-min Rain = 0
KES1 202111Z 14012KT 39/17 A2997 RMK A01 T03890167  RH  027%=      5-min Rain = 0
KES1 202112Z 14011KT 39/17 A2997 RMK A01 T03880167  RH  027%=      5-min Rain = 0
KES1 202113Z 14008KT 39/17 A2997 RMK A01 T03870165  RH  027%=      5-min Rain = 0
KES1 202114Z 15009KT 39/16 A2997 RMK A01 T03860164  RH  027%=      5-min Rain = 0
KES1 202115Z 17006KT 39/17 A2996 RMK A01 T03860168  RH  028%=      5-min Rain = 0
KES1 202116Z 12008KT 39/17 A2996 RMK A01 T03890170  RH  028%=      5-min Rain = 0
KES1 202117Z 12009KT 39/17 A2996 RMK A01 T03900167  RH  027%=      5-min Rain = 0
KES1 202118Z 12010KT 39/17 A2996 RMK A01 T03890168  RH  027%=      5-min Rain = 0
KES1 202119Z 13011KT 39/17 A2996 RMK A01 T03890168  RH  028%=      5-min Rain = 0
KES1 202120Z 14012KT 39/16 A2996 RMK A01 T03880164  RH  027%=      5-min Rain = 0
KES1 202121Z 14010KT 39/16 A2996 RMK A01 T03880164  RH  027%=      5-min Rain = 0
KES1 202122Z 14010KT 39/16 A2996 RMK A01 T03870163  RH  027%=      5-min Rain = 0
KES1 202123Z 14013KT 39/17 A2996 RMK A01 T03870165  RH  027%=      5-min Rain = 0
KES1 202124Z 14011KT 39/16 A2996 RMK A01 T03870164  RH  027%=      5-min Rain = 0
KES1 202125Z 16012KT 39/16 A2996 RMK A01 T03880164  RH  027%=      5-min Rain = 0
KES1 202126Z 16011KT 39/16 A2996 RMK A01 T03880163  RH  027%=      5-min Rain = 0
KES1 202127Z 17010KT 39/16 A2996 RMK A01 T03870163  RH  027%=      5-min Rain = 0
KES1 202128Z 17007KT 39/16 A2996 RMK A01 T03870163  RH  027%=      5-min Rain = 0
KES1 202129Z 15007KT 39/16 A2996 RMK A01 T03860164  RH  027%=      5-min Rain = 0
KES1 202130Z 16010KT 39/17 A2996 RMK A01 T03870167  RH  028%=      5-min Rain = 0
KES1 202131Z 16009KT 39/17 A2996 RMK A01 T03880165  RH  027%=      5-min Rain = 0
KES1 202132Z 16011KT 39/17 A2996 RMK A01 T03880167  RH  027%=      5-min Rain = 0
KES1 202133Z 16010KT 39/17 A2996 RMK A01 T03890166  RH  027%=      5-min Rain = 0
KES1 202134Z 19006KT 39/16 A2996 RMK A01 T03880164  RH  027%=      5-min Rain = 0
KES1 202135Z 16007KT 39/17 A2996 RMK A01 T03870165  RH  027%=      5-min Rain = 0
KES1 202136Z 15009KT 39/17 A2996 RMK A01 T03860168  RH  028%=      5-min Rain = 0
KES1 202137Z 13011KT 39/17 A2996 RMK A01 T03870170  RH  028%=      5-min Rain = 0
KES1 202138Z 14011KT 39/17 A2996 RMK A01 T03880170  RH  028%=      5-min Rain = 0
KES1 202139Z 15010KT 39/17 A2996 RMK A01 T03890168  RH  027%=      5-min Rain = 0
KES1 202140Z 13012KT 39/17 A2996 RMK A01 T03900169  RH  027%=      5-min Rain = 0
KES1 202141Z 13011KT 39/17 A2996 RMK A01 T03890168  RH  027%=      5-min Rain = 0
KES1 202142Z 13011KT 39/17 A2996 RMK A01 T03880166  RH  027%=      5-min Rain = 0
KES1 202143Z 14009KT 39/17 A2996 RMK A01 T03860166  RH  028%=      5-min Rain = 0
KES1 202144Z 13008KT 39/17 A2996 RMK A01 T03860169  RH  028%=      5-min Rain = 0
KES1 202145Z 15007KT 39/17 A2996 RMK A01 T03890171  RH  028%=      5-min Rain = 0
KES1 202146Z 15007KT 39/17 A2996 RMK A01 T03910169  RH  027%=      5-min Rain = 0
KES1 202147Z 16012KT 39/17 A2996 RMK A01 T03920166  RH  027%=      5-min Rain = 0
KES1 202148Z 16010KT 39/16 A2996 RMK A01 T03900157  RH  025%=      5-min Rain = 0
KES1 202149Z 15009KT 39/16 A2995 RMK A01 T03880161  RH  026%=      5-min Rain = 0
KES1 202150Z 16007KT 39/17 A2995 RMK A01 T03880165  RH  027%=      5-min Rain = 0
KES1 202151Z 17008KT 39/17 A2995 RMK A01 T03910169  RH  027%=      5-min Rain = 0
KES1 202152Z 17010KT 39/17 A2995 RMK A01 T03940165  RH  026%=      5-min Rain = 0
KES1 202153Z 16009KT 39/16 A2995 RMK A01 T03920163  RH  026%=      5-min Rain = 0
KES1 202154Z 16009KT 39/16 A2995 RMK A01 T03900163  RH  027%=      5-min Rain = 0
KES1 202155Z 15007KT 39/17 A2995 RMK A01 T03900165  RH  027%=      5-min Rain = 0
KES1 202156Z 15007KT 39/17 A2995 RMK A01 T03910169  RH  027%=      5-min Rain = 0
KES1 202157Z 15007KT 39/17 A2995 RMK A01 T03930166  RH  027%=      5-min Rain = 0
KES1 202158Z 14010KT 39/16 A2995 RMK A01 T03920164  RH  026%=      5-min Rain = 0
KES1 202159Z 13011KT 39/16 A2995 RMK A01 T03900161  RH  026%=      5-min Rain = 0
KES1 202200Z 14010KT 39/16 A2995 RMK A01 T03870162  RH  027%=      5-min Rain = 0
KES1 202201Z 14011KT 39/17 A2995 RMK A01 T03870166  RH  027%=      5-min Rain = 0
KES1 202202Z 16007KT 39/16 A2995 RMK A01 T03880161  RH  026%=      5-min Rain = 0
KES1 202203Z 15005KT 39/16 A2995 RMK A01 T03880160  RH  026%=      5-min Rain = 0
KES1 202204Z 16008KT 39/17 A2995 RMK A01 T03880166  RH  027%=      5-min Rain = 0
KES1 202205Z 17010KT 39/17 A2995 RMK A01 T03910165  RH  027%=      5-min Rain = 0
KES1 202206Z 16009KT 39/17 A2995 RMK A01 T03920166  RH  027%=      5-min Rain = 0
KES1 202207Z 16012KT 39/16 A2995 RMK A01 T03930163  RH  026%=      5-min Rain = 0
KES1 202208Z 13011KT 39/16 A2995 RMK A01 T03900160  RH  026%=      5-min Rain = 0
KES1 202209Z 14011KT 39/16 A2995 RMK A01 T03880162  RH  027%=      5-min Rain = 0
KES1 202210Z 13008KT 39/16 A2995 RMK A01 T03870163  RH  027%=      5-min Rain = 0
KES1 202211Z 14006KT 39/16 A2995 RMK A01 T03870163  RH  027%=      5-min Rain = 0
KES1 202212Z 16007KT 39/16 A2995 RMK A01 T03880163  RH  027%=      5-min Rain = 0
KES1 202213Z 16008KT 39/16 A2995 RMK A01 T03880161  RH  026%=      5-min Rain = 0
KES1 202214Z 16010KT 39/16 A2995 RMK A01 T03890163  RH  027%=      5-min Rain = 0
KES1 202215Z 14009KT 39/16 A2995 RMK A01 T03890161  RH  026%=      5-min Rain = 0
KES1 202216Z 14009KT 39/16 A2995 RMK A01 T03890160  RH  026%=      5-min Rain = 0
KES1 202217Z 14008KT 39/16 A2995 RMK A01 T03890163  RH  027%=      5-min Rain = 0
KES1 202218Z 14009KT 39/16 A2995 RMK A01 T03900162  RH  026%=      5-min Rain = 0
KES1 202219Z 12008KT 39/16 A2995 RMK A01 T03900158  RH  026%=      5-min Rain = 0
KES1 202220Z 14008KT 39/16 A2995 RMK A01 T03880159  RH  026%=      5-min Rain = 0
KES1 202221Z 13007KT 39/16 A2995 RMK A01 T03870162  RH  027%=      5-min Rain = 0
KES1 202222Z 13009KT 39/16 A2995 RMK A01 T03860156  RH  026%=      5-min Rain = 0
KES1 202223Z 13008KT 38/16 A2995 RMK A01 T03830157  RH  027%=      5-min Rain = 0
KES1 202224Z 15006KT 38/16 A2995 RMK A01 T03810157  RH  027%=      5-min Rain = 0
KES1 202225Z 14007KT 38/16 A2995 RMK A01 T03820160  RH  027%=      5-min Rain = 0
KES1 202226Z 14009KT 39/16 A2995 RMK A01 T03850161  RH  027%=      5-min Rain = 0
KES1 202227Z 15009KT 39/16 A2995 RMK A01 T03870160  RH  026%=      5-min Rain = 0
KES1 202228Z 14011KT 39/16 A2995 RMK A01 T03880156  RH  025%=      5-min Rain = 0
KES1 202229Z 14010KT 39/16 A2995 RMK A01 T03870155  RH  026%=      5-min Rain = 0
KES1 202230Z 14011KT 39/15 A2995 RMK A01 T03870153  RH  025%=      5-min Rain = 0
KES1 202231Z 14009KT 39/15 A2995 RMK A01 T03860153  RH  025%=      5-min Rain = 0
KES1 202232Z 14007KT 39/15 A2995 RMK A01 T03860154  RH  026%=      5-min Rain = 0
KES1 202233Z 13007KT 39/16 A2995 RMK A01 T03850157  RH  026%=      5-min Rain = 0
KES1 202234Z 16007KT 39/16 A2995 RMK A01 T03870159  RH  026%=      5-min Rain = 0
KES1 202235Z 15009KT 39/16 A2995 RMK A01 T03890158  RH  026%=      5-min Rain = 0
KES1 202236Z 14010KT 39/16 A2995 RMK A01 T03900159  RH  026%=      5-min Rain = 0
KES1 202237Z 16008KT 39/16 A2995 RMK A01 T03890160  RH  026%=      5-min Rain = 0
KES1 202238Z 18009KT 39/16 A2995 RMK A01 T03900158  RH  026%=      5-min Rain = 0
KES1 202239Z 16009KT 39/16 A2995 RMK A01 T03900158  RH  026%=      5-min Rain = 0
KES1 202240Z 18009KT 39/16 A2995 RMK A01 T03890158  RH  026%=      5-min Rain = 0
KES1 202241Z 17008KT 39/16 A2995 RMK A01 T03880155  RH  026%=      5-min Rain = 0
KES1 202242Z 20006KT 39/15 A2995 RMK A01 T03850153  RH  025%=      5-min Rain = 0
KES1 202243Z 15007KT 38/16 A2995 RMK A01 T03840157  RH  026%=      5-min Rain = 0
KES1 202244Z 15009KT 38/16 A2995 RMK A01 T03840155  RH  026%=      5-min Rain = 0
KES1 202245Z 15010KT 38/16 A2995 RMK A01 T03830157  RH  026%=      5-min Rain = 0
KES1 202246Z 14009KT 38/16 A2994 RMK A01 T03820156  RH  027%=      5-min Rain = 0
KES1 202247Z 15011KT 38/16 A2994 RMK A01 T03810158  RH  027%=      5-min Rain = 0
KES1 202248Z 18007KT 38/16 A2995 RMK A01 T03810158  RH  027%=      5-min Rain = 0
KES1 202249Z 17008KT 38/16 A2995 RMK A01 T03810159  RH  027%=      5-min Rain = 0
KES1 202250Z 16009KT 38/16 A2995 RMK A01 T03800159  RH  027%=      5-min Rain = 0
KES1 202251Z 16011KT 38/17 A2995 RMK A01 T03800165  RH  028%=      5-min Rain = 0
KES1 202252Z 16012KT 38/17 A2995 RMK A01 T03790166  RH  029%=      5-min Rain = 0
KES1 202253Z 16013KT 38/17 A2995 RMK A01 T03770167  RH  029%=      5-min Rain = 0
KES1 202254Z 16011KT 38/17 A2995 RMK A01 T03770168  RH  029%=      5-min Rain = 0
KES1 202255Z 16009KT 38/17 A2995 RMK A01 T03760169  RH  030%=      5-min Rain = 0
KES1 202256Z 15009KT 38/17 A2995 RMK A01 T03760169  RH  030%=      5-min Rain = 0
KES1 202257Z 15008KT 38/17 A2995 RMK A01 T03760168  RH  029%=      5-min Rain = 0
KES1 202258Z 15008KT 38/17 A2995 RMK A01 T03760169  RH  030%=      5-min Rain = 0
KES1 202259Z 15009KT 38/17 A2995 RMK A01 T03770167  RH  029%=      5-min Rain = 0
KES1 202300Z 14008KT 38/17 A2995 RMK A01 T03780169  RH  029%=      5-min Rain = 0
KES1 202301Z 15008KT 38/17 A2995 RMK A01 T03780167  RH  029%=      5-min Rain = 0
KES1 202302Z 15007KT 38/17 A2995 RMK A01 T03790168  RH  029%=      5-min Rain = 0
KES1 202303Z 15008KT 38/17 A2995 RMK A01 T03790168  RH  029%=      5-min Rain = 0
KES1 202304Z 16008KT 38/17 A2995 RMK A01 T03800167  RH  029%=      5-min Rain = 0
KES1 202305Z 16008KT 38/17 A2995 RMK A01 T03810166  RH  028%=      5-min Rain = 0
KES1 202306Z 15007KT 38/17 A2995 RMK A01 T03810171  RH  029%=      5-min Rain = 0
KES1 202307Z 16007KT 38/17 A2995 RMK A01 T03820171  RH  029%=      5-min Rain = 0
KES1 202308Z 16010KT 38/17 A2995 RMK A01 T03830168  RH  028%=      5-min Rain = 0
KES1 202309Z 15007KT 38/17 A2995 RMK A01 T03830171  RH  029%=      5-min Rain = 0
KES1 202310Z 15007KT 38/17 A2995 RMK A01 T03820174  RH  030%=      5-min Rain = 0
KES1 202311Z 15008KT 38/17 A2995 RMK A01 T03830171  RH  029%=      5-min Rain = 0
KES1 202312Z 16006KT 38/17 A2994 RMK A01 T03820173  RH  029%=      5-min Rain = 0
KES1 202313Z 15008KT 38/17 A2994 RMK A01 T03810168  RH  029%=      5-min Rain = 0
KES1 202314Z 16008KT 38/17 A2994 RMK A01 T03800166  RH  028%=      5-min Rain = 0
KES1 202315Z 15007KT 38/17 A2994 RMK A01 T03780166  RH  029%=      5-min Rain = 0
KES1 202316Z 15007KT 38/17 A2994 RMK A01 T03760169  RH  030%=      5-min Rain = 0
KES1 202317Z 15008KT 37/17 A2994 RMK A01 T03740166  RH  029%=      5-min Rain = 0
KES1 202318Z 15008KT 37/17 A2994 RMK A01 T03720166  RH  030%=      5-min Rain = 0
KES1 202319Z 15007KT 37/17 A2994 RMK A01 T03700166  RH  030%=      5-min Rain = 0
KES1 202320Z 15006KT 37/17 A2995 RMK A01 T03690166  RH  030%=      5-min Rain = 0
KES1 202321Z 15007KT 37/17 A2995 RMK A01 T03680168  RH  031%=      5-min Rain = 0
KES1 202322Z 15005KT 37/17 A2995 RMK A01 T03670168  RH  031%=      5-min Rain = 0
KES1 202323Z 15007KT 37/17 A2995 RMK A01 T03660168  RH  031%=      5-min Rain = 0
KES1 202324Z 15006KT 37/17 A2995 RMK A01 T03650167  RH  031%=      5-min Rain = 0
KES1 202325Z 15008KT 36/17 A2995 RMK A01 T03640169  RH  032%=      5-min Rain = 0
KES1 202326Z 15007KT 36/17 A2995 RMK A01 T03640166  RH  031%=      5-min Rain = 0
KES1 202327Z 15007KT 36/17 A2995 RMK A01 T03630167  RH  032%=      5-min Rain = 0
KES1 202328Z 15006KT 36/17 A2995 RMK A01 T03630169  RH  032%=      5-min Rain = 0
KES1 202329Z 15006KT 36/17 A2995 RMK A01 T03620170  RH  032%=      5-min Rain = 0
KES1 202330Z 15006KT 36/17 A2995 RMK A01 T03610169  RH  032%=      5-min Rain = 0
KES1 202331Z 15005KT 36/17 A2995 RMK A01 T03610171  RH  033%=      5-min Rain = 0
KES1 202332Z 15006KT 36/17 A2995 RMK A01 T03600173  RH  033%=      5-min Rain = 0
KES1 202333Z 15007KT 36/17 A2995 RMK A01 T03600171  RH  033%=      5-min Rain = 0
KES1 202334Z 15006KT 36/17 A2995 RMK A01 T03590169  RH  032%=      5-min Rain = 0
KES1 202335Z 16005KT 36/17 A2995 RMK A01 T03590171  RH  033%=      5-min Rain = 0
KES1 202336Z 16006KT 36/17 A2995 RMK A01 T03590170  RH  033%=      5-min Rain = 0
KES1 202337Z 15006KT 36/17 A2995 RMK A01 T03590171  RH  033%=      5-min Rain = 0
KES1 202338Z 16005KT 36/17 A2995 RMK A01 T03590172  RH  033%=      5-min Rain = 0
KES1 202339Z 16004KT 36/18 A2995 RMK A01 T03590175  RH  034%=      5-min Rain = 0
KES1 202340Z 16005KT 36/18 A2995 RMK A01 T03580175  RH  034%=      5-min Rain = 0
KES1 202341Z 16006KT 36/18 A2995 RMK A01 T03580175  RH  034%=      5-min Rain = 0
KES1 202342Z 16005KT 36/18 A2995 RMK A01 T03570176  RH  034%=      5-min Rain = 0
KES1 202343Z 16005KT 36/17 A2995 RMK A01 T03570174  RH  034%=      5-min Rain = 0
KES1 202344Z 16005KT 36/18 A2995 RMK A01 T03570176  RH  035%=      5-min Rain = 0
KES1 202345Z 16005KT 36/18 A2995 RMK A01 T03560176  RH  035%=      5-min Rain = 0
KES1 202346Z 16005KT 36/18 A2995 RMK A01 T03550177  RH  035%=      5-min Rain = 0
KES1 202347Z 16006KT 36/18 A2995 RMK A01 T03550177  RH  035%=      5-min Rain = 0
KES1 202348Z 15006KT 36/18 A2995 RMK A01 T03550177  RH  035%=      5-min Rain = 0
KES1 202349Z 16007KT 36/18 A2995 RMK A01 T03550176  RH  035%=      5-min Rain = 0
KES1 202350Z 16007KT 36/18 A2995 RMK A01 T03550175  RH  034%=      5-min Rain = 0
KES1 202351Z 15006KT 36/18 A2995 RMK A01 T03550177  RH  035%=      5-min Rain = 0
KES1 202352Z 15007KT 36/18 A2995 RMK A01 T03550178  RH  035%=      5-min Rain = 0
KES1 202353Z 15008KT 36/18 A2995 RMK A01 T03550176  RH  035%=      5-min Rain = 0
KES1 202354Z 15007KT 36/18 A2995 RMK A01 T03550175  RH  035%=      5-min Rain = 0
KES1 202355Z 14008KT 36/18 A2995 RMK A01 T03550176  RH  035%=      5-min Rain = 0
KES1 202356Z 15007KT 36/17 A2995 RMK A01 T03550174  RH  034%=      5-min Rain = 0
KES1 202357Z 15007KT 36/18 A2995 RMK A01 T03550175  RH  035%=      5-min Rain = 0
KES1 202358Z 15008KT 36/17 A2995 RMK A01 T03550173  RH  034%=      5-min Rain = 0
KES1 202359Z 15008KT 36/17 A2994 RMK A01 T03550173  RH  034%=      5-min Rain = 0
KES1 210000Z 15006KT 36/17 A2994 RMK A01 T03560174  RH  034%=      5-min Rain = 0
KES1 210001Z 15007KT 36/18 A2994 RMK A01 T03560175  RH  035%=      5-min Rain = 0
KES1 210002Z 15007KT 36/18 A2994 RMK A01 T03550175  RH  034%=      5-min Rain = 0
KES1 210003Z 15008KT 36/17 A2994 RMK A01 T03550171  RH  034%=      5-min Rain = 0
KES1 210004Z 15007KT 36/17 A2994 RMK A01 T03560172  RH  034%=      5-min Rain = 0
KES1 210005Z 15007KT 36/17 A2994 RMK A01 T03560173  RH  034%=      5-min Rain = 0
KES1 210006Z 15007KT 36/17 A2994 RMK A01 T03560172  RH  034%=      5-min Rain = 0
KES1 210007Z 14007KT 36/17 A2994 RMK A01 T03560172  RH  034%=      5-min Rain = 0
KES1 210008Z 15007KT 36/17 A2994 RMK A01 T03560173  RH  034%=      5-min Rain = 0
KES1 210009Z 15007KT 36/17 A2994 RMK A01 T03560172  RH  034%=      5-min Rain = 0
KES1 210010Z 14007KT 36/17 A2994 RMK A01 T03560170  RH  033%=      5-min Rain = 0
KES1 210011Z 15007KT 36/17 A2994 RMK A01 T03560171  RH  034%=      5-min Rain = 0
KES1 210012Z 15006KT 36/17 A2994 RMK A01 T03560173  RH  034%=      5-min Rain = 0
KES1 210013Z 14007KT 36/17 A2994 RMK A01 T03550174  RH  034%=      5-min Rain = 0
KES1 210014Z 14007KT 36/17 A2994 RMK A01 T03550172  RH  034%=      5-min Rain = 0
KES1 210015Z 14008KT 35/17 A2994 RMK A01 T03540171  RH  034%=      5-min Rain = 0
KES1 210016Z 14007KT 35/17 A2994 RMK A01 T03540171  RH  034%=      5-min Rain = 0
KES1 210017Z 14006KT 35/17 A2994 RMK A01 T03540172  RH  034%=      5-min Rain = 0
KES1 210018Z 14007KT 35/17 A2994 RMK A01 T03540171  RH  034%=      5-min Rain = 0
KES1 210019Z 14006KT 35/17 A2994 RMK A01 T03540170  RH  034%=      5-min Rain = 0
KES1 210020Z 14006KT 35/17 A2994 RMK A01 T03540172  RH  034%=      5-min Rain = 0
KES1 210021Z 14007KT 35/17 A2994 RMK A01 T03540169  RH  034%=      5-min Rain = 0
KES1 210022Z 13007KT 35/17 A2994 RMK A01 T03540169  RH  033%=      5-min Rain = 0
KES1 210023Z 14006KT 35/17 A2994 RMK A01 T03540169  RH  033%=      5-min Rain = 0
KES1 210024Z 13006KT 35/17 A2994 RMK A01 T03540170  RH  034%=      5-min Rain = 0
KES1 210025Z 13006KT 35/17 A2994 RMK A01 T03530169  RH  034%=      5-min Rain = 0
KES1 210026Z 13006KT 35/17 A2994 RMK A01 T03530170  RH  034%=      5-min Rain = 0
KES1 210027Z 13006KT 35/17 A2994 RMK A01 T03520169  RH  034%=      5-min Rain = 0
KES1 210028Z 13007KT 35/17 A2994 RMK A01 T03530169  RH  034%=      5-min Rain = 0
KES1 210029Z 14006KT 35/17 A2994 RMK A01 T03520169  RH  034%=      5-min Rain = 0
KES1 210030Z 14006KT 35/17 A2994 RMK A01 T03520169  RH  034%=      5-min Rain = 0
KES1 210031Z 14006KT 35/17 A2994 RMK A01 T03520169  RH  034%=      5-min Rain = 0
KES1 210032Z 14007KT 35/17 A2994 RMK A01 T03520168  RH  034%=      5-min Rain = 0
KES1 210033Z 14006KT 35/17 A2994 RMK A01 T03520169  RH  034%=      5-min Rain = 0
KES1 210034Z 14005KT 35/17 A2994 RMK A01 T03520168  RH  034%=      5-min Rain = 0
KES1 210035Z 14005KT 35/17 A2994 RMK A01 T03510170  RH  034%=      5-min Rain = 0
KES1 210036Z 14005KT 35/17 A2994 RMK A01 T03510169  RH  034%=      5-min Rain = 0
KES1 210037Z 14006KT 35/17 A2994 RMK A01 T03510168  RH  034%=      5-min Rain = 0
KES1 210038Z 14005KT 35/17 A2994 RMK A01 T03510168  RH  034%=      5-min Rain = 0
KES1 210039Z 14005KT 35/17 A2994 RMK A01 T03510169  RH  034%=      5-min Rain = 0
KES1 210040Z 14005KT 35/17 A2994 RMK A01 T03510169  RH  034%=      5-min Rain = 0
KES1 210041Z 13006KT 35/17 A2994 RMK A01 T03510170  RH  034%=      5-min Rain = 0
KES1 210042Z 14006KT 35/17 A2994 RMK A01 T03510170  RH  034%=      5-min Rain = 0
KES1 210043Z 14005KT 35/17 A2994 RMK A01 T03510169  RH  034%=      5-min Rain = 0
KES1 210044Z 14004KT 35/17 A2994 RMK A01 T03510170  RH  034%=      5-min Rain = 0
KES1 210045Z 14006KT 35/17 A2994 RMK A01 T03510169  RH  034%=      5-min Rain = 0
KES1 210046Z 14004KT 35/17 A2994 RMK A01 T03510169  RH  034%=      5-min Rain = 0
KES1 210047Z 13006KT 35/17 A2994 RMK A01 T03510171  RH  035%=      5-min Rain = 0
KES1 210048Z 13006KT 35/17 A2994 RMK A01 T03500171  RH  035%=      5-min Rain = 0
KES1 210049Z 13007KT 35/17 A2994 RMK A01 T03490170  RH  035%=      5-min Rain = 0
KES1 210050Z 13006KT 35/17 A2994 RMK A01 T03490170  RH  035%=      5-min Rain = 0
KES1 210051Z 13006KT 35/17 A2994 RMK A01 T03490173  RH  035%=      5-min Rain = 0
KES1 210052Z 14007KT 35/17 A2995 RMK A01 T03480170  RH  035%=      5-min Rain = 0
KES1 210053Z 14007KT 35/17 A2995 RMK A01 T03480170  RH  035%=      5-min Rain = 0
KES1 210054Z 13007KT 35/17 A2995 RMK A01 T03480171  RH  035%=      5-min Rain = 0
KES1 210055Z 13006KT 35/17 A2995 RMK A01 T03470169  RH  035%=      5-min Rain = 0
KES1 210056Z 14006KT 35/17 A2995 RMK A01 T03480170  RH  035%=      5-min Rain = 0
KES1 210057Z 14006KT 35/17 A2995 RMK A01 T03470169  RH  035%=      5-min Rain = 0
KES1 210058Z 15007KT 35/17 A2995 RMK A01 T03470169  RH  035%=      5-min Rain = 0
KES1 210059Z 14006KT 35/17 A2995 RMK A01 T03470168  RH  034%=      5-min Rain = 0
KES1 210100Z 15007KT 35/17 A2995 RMK A01 T03470166  RH  034%=      5-min Rain = 0
KES1 210101Z 15008KT 35/17 A2995 RMK A01 T03480165  RH  034%=      5-min Rain = 0
KES1 210102Z 15007KT 35/17 A2995 RMK A01 T03480165  RH  034%=      5-min Rain = 0
KES1 210103Z 15007KT 35/17 A2995 RMK A01 T03480166  RH  034%=      5-min Rain = 0
KES1 210104Z 15007KT 35/16 A2995 RMK A01 T03480164  RH  034%=      5-min Rain = 0
KES1 210105Z 15007KT 35/16 A2995 RMK A01 T03470164  RH  034%=      5-min Rain = 0
KES1 210106Z 15007KT 35/17 A2995 RMK A01 T03470165  RH  034%=      5-min Rain = 0
KES1 210107Z 15007KT 35/16 A2995 RMK A01 T03460164  RH  034%=      5-min Rain = 0
KES1 210108Z 15006KT 35/16 A2995 RMK A01 T03460162  RH  034%=      5-min Rain = 0
KES1 210109Z 15006KT 35/16 A2995 RMK A01 T03450164  RH  034%=      5-min Rain = 0
KES1 210110Z 15006KT 34/16 A2995 RMK A01 T03440163  RH  034%=      5-min Rain = 0
KES1 210111Z 14007KT 34/16 A2995 RMK A01 T03440162  RH  034%=      5-min Rain = 0
KES1 210112Z 14006KT 34/16 A2996 RMK A01 T03440161  RH  034%=      5-min Rain = 0
KES1 210113Z 14006KT 34/16 A2996 RMK A01 T03430163  RH  034%=      5-min Rain = 0
KES1 210114Z 14006KT 34/16 A2996 RMK A01 T03420163  RH  034%=      5-min Rain = 0
KES1 210115Z 14006KT 34/16 A2996 RMK A01 T03410161  RH  034%=      5-min Rain = 0
KES1 210116Z 14006KT 34/16 A2996 RMK A01 T03410160  RH  034%=      5-min Rain = 0
KES1 210117Z 14006KT 34/16 A2996 RMK A01 T03410161  RH  034%=      5-min Rain = 0
KES1 210118Z 14006KT 34/16 A2996 RMK A01 T03410162  RH  034%=      5-min Rain = 0
KES1 210119Z 14006KT 34/16 A2996 RMK A01 T03410161  RH  034%=      5-min Rain = 0
KES1 210120Z 14006KT 34/16 A2996 RMK A01 T03400161  RH  034%=      5-min Rain = 0
KES1 210121Z 15007KT 34/16 A2996 RMK A01 T03400160  RH  034%=      5-min Rain = 0
KES1 210122Z 15007KT 34/16 A2996 RMK A01 T03390160  RH  034%=      5-min Rain = 0
KES1 210123Z 15006KT 34/16 A2996 RMK A01 T03380160  RH  035%=      5-min Rain = 0
KES1 210124Z 15007KT 34/16 A2996 RMK A01 T03380160  RH  034%=      5-min Rain = 0
KES1 210125Z 15006KT 34/16 A2996 RMK A01 T03380160  RH  035%=      5-min Rain = 0
KES1 210126Z 14008KT 34/16 A2996 RMK A01 T03370158  RH  034%=      5-min Rain = 0
KES1 210127Z 15007KT 34/16 A2996 RMK A01 T03370159  RH  034%=      5-min Rain = 0
KES1 210128Z 15007KT 34/16 A2996 RMK A01 T03370159  RH  035%=      5-min Rain = 0
KES1 210129Z 14006KT 34/16 A2996 RMK A01 T03360159  RH  035%=      5-min Rain = 0
KES1 210130Z 15006KT 34/16 A2996 RMK A01 T03350159  RH  035%=      5-min Rain = 0
KES1 210131Z 15007KT 34/16 A2996 RMK A01 T03350158  RH  035%=      5-min Rain = 0
KES1 210132Z 14007KT 34/16 A2996 RMK A01 T03350158  RH  035%=      5-min Rain = 0
KES1 210133Z 15006KT 34/16 A2996 RMK A01 T03350158  RH  035%=      5-min Rain = 0
KES1 210134Z 14006KT 33/16 A2996 RMK A01 T03340158  RH  035%=      5-min Rain = 0
KES1 210135Z 15006KT 33/16 A2996 RMK A01 T03330159  RH  035%=      5-min Rain = 0
KES1 210136Z 14007KT 33/16 A2996 RMK A01 T03320158  RH  035%=      5-min Rain = 0
KES1 210137Z 15006KT 33/16 A2996 RMK A01 T03320158  RH  035%=      5-min Rain = 0
KES1 210138Z 14007KT 33/16 A2996 RMK A01 T03310158  RH  035%=      5-min Rain = 0
KES1 210139Z 14007KT 33/16 A2996 RMK A01 T03310157  RH  035%=      5-min Rain = 0
KES1 210140Z 14007KT 33/16 A2996 RMK A01 T03310156  RH  035%=      5-min Rain = 0
KES1 210141Z 15007KT 33/16 A2996 RMK A01 T03310157  RH  035%=      5-min Rain = 0
KES1 210142Z 15007KT 33/16 A2996 RMK A01 T03310158  RH  035%=      5-min Rain = 0
KES1 210143Z 15007KT 33/16 A2996 RMK A01 T03310157  RH  035%=      5-min Rain = 0
KES1 210144Z 15006KT 33/16 A2996 RMK A01 T03300157  RH  035%=      5-min Rain = 0
KES1 210145Z 15007KT 33/16 A2996 RMK A01 T03300156  RH  035%=      5-min Rain = 0
KES1 210146Z 15007KT 33/16 A2996 RMK A01 T03290156  RH  035%=      5-min Rain = 0
KES1 210147Z 16007KT 33/16 A2996 RMK A01 T03290156  RH  035%=      5-min Rain = 0
KES1 210148Z 15007KT 33/16 A2996 RMK A01 T03290156  RH  035%=      5-min Rain = 0
KES1 210149Z 15007KT 33/16 A2997 RMK A01 T03280156  RH  036%=      5-min Rain = 0
KES1 210150Z 15007KT 33/16 A2997 RMK A01 T03270156  RH  036%=      5-min Rain = 0
KES1 210151Z 15007KT 33/16 A2997 RMK A01 T03270156  RH  036%=      5-min Rain = 0
KES1 210152Z 15006KT 33/16 A2997 RMK A01 T03260156  RH  036%=      5-min Rain = 0
KES1 210153Z 15007KT 33/16 A2997 RMK A01 T03250156  RH  036%=      5-min Rain = 0
KES1 210154Z 15007KT 33/16 A2997 RMK A01 T03250156  RH  036%=      5-min Rain = 0
KES1 210155Z 15007KT 32/16 A2997 RMK A01 T03240156  RH  036%=      5-min Rain = 0
KES1 210156Z 15007KT 32/16 A2997 RMK A01 T03230156  RH  037%=      5-min Rain = 0
KES1 210157Z 15006KT 32/16 A2997 RMK A01 T03230156  RH  037%=      5-min Rain = 0
KES1 210158Z 15007KT 32/16 A2997 RMK A01 T03220156  RH  037%=      5-min Rain = 0
KES1 210159Z 15006KT 32/16 A2997 RMK A01 T03220155  RH  037%=      5-min Rain = 0
KES1 210200Z 15007KT 32/16 A2997 RMK A01 T03220156  RH  037%=      5-min Rain = 0
KES1 210201Z 15007KT 32/16 A2997 RMK A01 T03210155  RH  037%=      5-min Rain = 0
KES1 210202Z 15007KT 32/16 A2997 RMK A01 T03210155  RH  037%=      5-min Rain = 0
KES1 210203Z 15007KT 32/16 A2997 RMK A01 T03210155  RH  037%=      5-min Rain = 0
KES1 210204Z 15006KT 32/16 A2997 RMK A01 T03210156  RH  037%=      5-min Rain = 0
KES1 210205Z 15007KT 32/16 A2997 RMK A01 T03200156  RH  037%=      5-min Rain = 0
KES1 210206Z 15007KT 32/16 A2997 RMK A01 T03190155  RH  037%=      5-min Rain = 0
KES1 210207Z 15007KT 32/16 A2997 RMK A01 T03190155  RH  037%=      5-min Rain = 0
KES1 210208Z 15006KT 32/16 A2997 RMK A01 T03190155  RH  037%=      5-min Rain = 0
KES1 210209Z 15007KT 32/16 A2997 RMK A01 T03190155  RH  037%=      5-min Rain = 0
KES1 210210Z 15007KT 32/16 A2997 RMK A01 T03180155  RH  037%=      5-min Rain = 0
KES1 210211Z 15006KT 32/16 A2997 RMK A01 T03170155  RH  037%=      5-min Rain = 0
KES1 210212Z 15007KT 32/16 A2997 RMK A01 T03180155  RH  037%=      5-min Rain = 0
KES1 210213Z 15007KT 32/16 A2997 RMK A01 T03180155  RH  037%=      5-min Rain = 0
KES1 210214Z 15006KT 32/16 A2997 RMK A01 T03170155  RH  038%=      5-min Rain = 0
KES1 210215Z 15007KT 32/16 A2997 RMK A01 T03170155  RH  037%=      5-min Rain = 0
KES1 210216Z 15007KT 32/15 A2997 RMK A01 T03170154  RH  037%=      5-min Rain = 0
KES1 210217Z 15007KT 32/16 A2998 RMK A01 T03170155  RH  038%=      5-min Rain = 0
KES1 210218Z 15007KT 32/16 A2998 RMK A01 T03170155  RH  038%=      5-min Rain = 0
KES1 210219Z 15007KT 32/16 A2998 RMK A01 T03160155  RH  038%=      5-min Rain = 0
KES1 210220Z 15006KT 32/16 A2998 RMK A01 T03150156  RH  038%=      5-min Rain = 0
KES1 210221Z 15007KT 32/16 A2998 RMK A01 T03150155  RH  038%=      5-min Rain = 0
KES1 210222Z 15008KT 31/15 A2998 RMK A01 T03140154  RH  038%=      5-min Rain = 0
KES1 210223Z 15007KT 31/16 A2998 RMK A01 T03140155  RH  038%=      5-min Rain = 0
KES1 210224Z 15008KT 31/16 A2998 RMK A01 T03140155  RH  038%=      5-min Rain = 0
KES1 210225Z 15007KT 31/16 A2998 RMK A01 T03140155  RH  038%=      5-min Rain = 0
KES1 210226Z 15007KT 31/16 A2998 RMK A01 T03130156  RH  039%=      5-min Rain = 0
KES1 210227Z 15007KT 31/16 A2998 RMK A01 T03130155  RH  039%=      5-min Rain = 0
KES1 210228Z 15007KT 31/16 A2998 RMK A01 T03120156  RH  039%=      5-min Rain = 0
KES1 210229Z 15007KT 31/16 A2998 RMK A01 T03120156  RH  039%=      5-min Rain = 0
KES1 210230Z 15007KT 31/16 A2998 RMK A01 T03110155  RH  039%=      5-min Rain = 0
KES1 210231Z 15007KT 31/16 A2998 RMK A01 T03110156  RH  039%=      5-min Rain = 0
KES1 210232Z 15007KT 31/16 A2998 RMK A01 T03110156  RH  039%=      5-min Rain = 0
KES1 210233Z 15007KT 31/16 A2998 RMK A01 T03110156  RH  039%=      5-min Rain = 0
KES1 210234Z 15008KT 31/16 A2998 RMK A01 T03110156  RH  039%=      5-min Rain = 0
KES1 210235Z 15008KT 31/16 A2998 RMK A01 T03110156  RH  039%=      5-min Rain = 0
KES1 210236Z 15007KT 31/16 A2998 RMK A01 T03110156  RH  039%=      5-min Rain = 0
KES1 210237Z 15007KT 31/16 A2998 RMK A01 T03110156  RH  039%=      5-min Rain = 0
KES1 210238Z 15008KT 31/16 A2998 RMK A01 T03100156  RH  039%=      5-min Rain = 0
KES1 210239Z 15008KT 31/16 A2998 RMK A01 T03100156  RH  039%=      5-min Rain = 0
KES1 210240Z 15008KT 31/16 A2998 RMK A01 T03100157  RH  040%=      5-min Rain = 0
KES1 210241Z 15008KT 31/16 A2998 RMK A01 T03100156  RH  039%=      5-min Rain = 0
KES1 210242Z 15008KT 31/16 A2998 RMK A01 T03100157  RH  040%=      5-min Rain = 0
KES1 210243Z 15008KT 31/16 A2998 RMK A01 T03090157  RH  040%=      5-min Rain = 0
KES1 210244Z 15007KT 31/16 A2998 RMK A01 T03090157  RH  040%=      5-min Rain = 0
KES1 210245Z 15008KT 31/16 A2998 RMK A01 T03090157  RH  040%=      5-min Rain = 0
KES1 210246Z 15008KT 31/16 A2999 RMK A01 T03080157  RH  040%=      5-min Rain = 0
KES1 210247Z 15008KT 31/16 A2999 RMK A01 T03080157  RH  040%=      5-min Rain = 0
KES1 210248Z 15007KT 31/16 A2999 RMK A01 T03080157  RH  040%=      5-min Rain = 0
KES1 210249Z 15008KT 31/16 A2999 RMK A01 T03080158  RH  040%=      5-min Rain = 0
KES1 210250Z 15007KT 31/16 A2999 RMK A01 T03080158  RH  040%=      5-min Rain = 0
KES1 210251Z 15007KT 31/16 A2999 RMK A01 T03080158  RH  040%=      5-min Rain = 0
KES1 210252Z 16008KT 31/16 A2999 RMK A01 T03070158  RH  041%=      5-min Rain = 0
KES1 210253Z 15008KT 31/16 A2999 RMK A01 T03070158  RH  041%=      5-min Rain = 0
KES1 210254Z 15008KT 31/16 A2999 RMK A01 T03070159  RH  041%=      5-min Rain = 0
KES1 210255Z 15008KT 31/16 A2999 RMK A01 T03070159  RH  041%=      5-min Rain = 0
KES1 210256Z 15007KT 31/16 A2999 RMK A01 T03070160  RH  041%=      5-min Rain = 0
KES1 210257Z 15007KT 31/16 A2999 RMK A01 T03060160  RH  041%=      5-min Rain = 0
KES1 210258Z 15008KT 31/16 A2999 RMK A01 T03050160  RH  041%=      5-min Rain = 0
KES1 210259Z 15008KT 31/16 A2999 RMK A01 T03050160  RH  041%=      5-min Rain = 0
KES1 210300Z 15008KT 31/16 A2999 RMK A01 T03050160  RH  042%=      5-min Rain = 0
KES1 210301Z 15008KT 31/16 A2999 RMK A01 T03050160  RH  042%=      5-min Rain = 0
KES1 210302Z 15008KT 31/16 A2999 RMK A01 T03050160  RH  042%=      5-min Rain = 0
KES1 210303Z 15008KT 31/16 A2999 RMK A01 T03050160  RH  042%=      5-min Rain = 0
KES1 210304Z 15007KT 31/16 A2999 RMK A01 T03050160  RH  042%=      5-min Rain = 0
KES1 210305Z 15008KT 31/16 A2999 RMK A01 T03050161  RH  042%=      5-min Rain = 0
KES1 210306Z 15007KT 31/16 A2999 RMK A01 T03050162  RH  042%=      5-min Rain = 0
KES1 210307Z 15008KT 30/16 A2999 RMK A01 T03040162  RH  042%=      5-min Rain = 0
KES1 210308Z 15007KT 30/16 A2999 RMK A01 T03040162  RH  042%=      5-min Rain = 0
KES1 210309Z 15008KT 31/16 A2999 RMK A01 T03050163  RH  042%=      5-min Rain = 0
KES1 210310Z 15007KT 30/16 A2999 RMK A01 T03040163  RH  043%=      5-min Rain = 0
KES1 210311Z 14008KT 30/16 A2999 RMK A01 T03040163  RH  043%=      5-min Rain = 0
KES1 210312Z 14008KT 30/16 A2999 RMK A01 T03040162  RH  042%=      5-min Rain = 0
KES1 210313Z 15007KT 30/16 A2999 RMK A01 T03040163  RH  043%=      5-min Rain = 0
KES1 210314Z 14007KT 30/16 A2999 RMK A01 T03040164  RH  043%=      5-min Rain = 0
KES1 210315Z 14007KT 31/16 A2999 RMK A01 T03050164  RH  043%=      5-min Rain = 0
KES1 210316Z 14008KT 30/16 A30 RMK A01 T03040164  RH  043%=      5-min Rain = 0
KES1 210317Z 15008KT 30/16 A30 RMK A01 T03040164  RH  043%=      5-min Rain = 0
KES1 210318Z 14007KT 31/16 A30 RMK A01 T03050164  RH  043%=      5-min Rain = 0
KES1 210319Z 14008KT 31/16 A30 RMK A01 T03050164  RH  043%=      5-min Rain = 0
KES1 210320Z 14007KT 31/17 A30 RMK A01 T03050165  RH  043%=      5-min Rain = 0
KES1 210321Z 14008KT 31/16 A30 RMK A01 T03050164  RH  043%=      5-min Rain = 0
KES1 210322Z 14008KT 31/16 A30 RMK A01 T03060164  RH  042%=      5-min Rain = 0
KES1 210323Z 14007KT 31/16 A30 RMK A01 T03070164  RH  042%=      5-min Rain = 0
KES1 210324Z 14008KT 31/17 A30 RMK A01 T03070165  RH  042%=      5-min Rain = 0
KES1 210325Z 14007KT 31/17 A30 RMK A01 T03070165  RH  042%=      5-min Rain = 0
KES1 210326Z 14008KT 31/17 A30 RMK A01 T03070165  RH  042%=      5-min Rain = 0
KES1 210327Z 14007KT 31/17 A30 RMK A01 T03070165  RH  042%=      5-min Rain = 0
KES1 210328Z 14008KT 31/17 A30 RMK A01 T03070165  RH  043%=      5-min Rain = 0
KES1 210329Z 14008KT 31/17 A30 RMK A01 T03070165  RH  042%=      5-min Rain = 0
KES1 210330Z 14008KT 31/17 A30 RMK A01 T03070165  RH  042%=      5-min Rain = 0
KES1 210331Z 14009KT 31/17 A30 RMK A01 T03080165  RH  042%=      5-min Rain = 0
KES1 210332Z 15009KT 31/17 A30 RMK A01 T03080165  RH  042%=      5-min Rain = 0
KES1 210333Z 14008KT 31/17 A30 RMK A01 T03090166  RH  042%=      5-min Rain = 0
KES1 210334Z 15007KT 31/17 A30 RMK A01 T03090166  RH  042%=      5-min Rain = 0
KES1 210335Z 15007KT 31/17 A30 RMK A01 T03080166  RH  043%=      5-min Rain = 0
KES1 210336Z 15008KT 31/17 A30 RMK A01 T03070167  RH  043%=      5-min Rain = 0
KES1 210337Z 14008KT 31/17 A30 RMK A01 T03070166  RH  043%=      5-min Rain = 0
KES1 210338Z 15008KT 31/17 A30 RMK A01 T03070166  RH  043%=      5-min Rain = 0
KES1 210339Z 15007KT 31/17 A30 RMK A01 T03070166  RH  043%=      5-min Rain = 0
KES1 210340Z 15008KT 31/17 A30 RMK A01 T03070167  RH  043%=      5-min Rain = 0
KES1 210341Z 15008KT 31/17 A30 RMK A01 T03070167  RH  043%=      5-min Rain = 0
KES1 210342Z 15007KT 31/17 A30 RMK A01 T03060167  RH  043%=      5-min Rain = 0
KES1 210343Z 15008KT 31/17 A30 RMK A01 T03060167  RH  043%=      5-min Rain = 0
KES1 210344Z 15007KT 31/17 A30 RMK A01 T03050167  RH  043%=      5-min Rain = 0
KES1 210345Z 15008KT 30/17 A30 RMK A01 T03040167  RH  044%=      5-min Rain = 0
KES1 210346Z 15007KT 30/17 A30 RMK A01 T03040167  RH  044%=      5-min Rain = 0
KES1 210347Z 15008KT 30/17 A30 RMK A01 T03030167  RH  044%=      5-min Rain = 0
KES1 210348Z 15007KT 30/17 A30 RMK A01 T03030167  RH  044%=      5-min Rain = 0
KES1 210349Z 15008KT 30/17 A30 RMK A01 T03030168  RH  044%=      5-min Rain = 0
KES1 210350Z 16007KT 30/17 A3001 RMK A01 T03020168  RH  044%=      5-min Rain = 0
KES1 210351Z 16006KT 30/17 A3001 RMK A01 T03010168  RH  045%=      5-min Rain = 0
KES1 210352Z 16007KT 30/17 A3001 RMK A01 T03010169  RH  045%=      5-min Rain = 0
KES1 210353Z 16007KT 30/17 A3001 RMK A01 T03000169  RH  045%=      5-min Rain = 0
KES1 210354Z 16007KT 30/17 A3001 RMK A01 T02990169  RH  046%=      5-min Rain = 0
KES1 210355Z 16007KT 30/17 A3001 RMK A01 T02980168  RH  046%=      5-min Rain = 0
KES1 210356Z 16008KT 30/17 A3001 RMK A01 T02980169  RH  046%=      5-min Rain = 0
KES1 210357Z 16007KT 30/17 A3001 RMK A01 T02970168  RH  046%=      5-min Rain = 0
KES1 210358Z 16006KT 30/17 A3001 RMK A01 T02970169  RH  046%=      5-min Rain = 0
KES1 210359Z 16007KT 30/17 A3001 RMK A01 T02970169  RH  046%=      5-min Rain = 0
KES1 210400Z 16007KT 30/17 A3001 RMK A01 T02960169  RH  046%=      5-min Rain = 0
KES1 210401Z 16007KT 30/17 A3001 RMK A01 T02950169  RH  047%=      5-min Rain = 0
KES1 210402Z 16007KT 30/17 A3001 RMK A01 T02950169  RH  047%=      5-min Rain = 0
KES1 210403Z 16007KT 30/17 A3001 RMK A01 T02950169  RH  047%=      5-min Rain = 0
KES1 210404Z 16007KT 29/17 A3001 RMK A01 T02940170  RH  047%=      5-min Rain = 0
KES1 210405Z 16007KT 29/17 A3001 RMK A01 T02940170  RH  047%=      5-min Rain = 0
KES1 210406Z 16006KT 29/17 A3001 RMK A01 T02930170  RH  047%=      5-min Rain = 0
KES1 210407Z 16006KT 29/17 A3001 RMK A01 T02930170  RH  048%=      5-min Rain = 0
KES1 210408Z 16007KT 29/17 A3001 RMK A01 T02920170  RH  048%=      5-min Rain = 0
KES1 210409Z 16006KT 29/17 A3001 RMK A01 T02920170  RH  048%=      5-min Rain = 0
KES1 210410Z 16006KT 29/17 A3001 RMK A01 T02910171  RH  048%=      5-min Rain = 0
KES1 210411Z 16007KT 29/17 A3001 RMK A01 T02910171  RH  048%=      5-min Rain = 0
KES1 210412Z 16007KT 29/17 A3001 RMK A01 T02900171  RH  048%=      5-min Rain = 0
KES1 210413Z 15007KT 29/17 A3001 RMK A01 T02900171  RH  049%=      5-min Rain = 0
KES1 210414Z 16007KT 29/17 A3001 RMK A01 T02900171  RH  049%=      5-min Rain = 0
KES1 210415Z 15007KT 29/17 A3001 RMK A01 T02900171  RH  049%=      5-min Rain = 0
KES1 210416Z 16007KT 29/17 A3001 RMK A01 T02890172  RH  049%=      5-min Rain = 0
KES1 210417Z 16007KT 29/17 A3001 RMK A01 T02880172  RH  049%=      5-min Rain = 0
KES1 210418Z 16007KT 29/17 A3001 RMK A01 T02880171  RH  049%=      5-min Rain = 0
KES1 210419Z 16007KT 29/17 A3001 RMK A01 T02880172  RH  049%=      5-min Rain = 0
KES1 210420Z 16007KT 29/17 A3001 RMK A01 T02880172  RH  049%=      5-min Rain = 0
KES1 210421Z 16006KT 29/17 A3001 RMK A01 T02880172  RH  050%=      5-min Rain = 0
KES1 210422Z 16007KT 29/17 A3001 RMK A01 T02870172  RH  050%=      5-min Rain = 0
KES1 210423Z 16007KT 29/17 A3001 RMK A01 T02870172  RH  050%=      5-min Rain = 0
KES1 210424Z 16007KT 29/17 A3001 RMK A01 T02870172  RH  050%=      5-min Rain = 0
KES1 210425Z 16007KT 29/17 A3001 RMK A01 T02870172  RH  050%=      5-min Rain = 0
KES1 210426Z 17008KT 29/17 A3001 RMK A01 T02870171  RH  050%=      5-min Rain = 0
KES1 210427Z 16008KT 29/17 A3001 RMK A01 T02870171  RH  049%=      5-min Rain = 0
KES1 210428Z 16008KT 29/17 A3001 RMK A01 T02880171  RH  049%=      5-min Rain = 0
KES1 210429Z 16007KT 29/17 A3001 RMK A01 T02880171  RH  049%=      5-min Rain = 0
KES1 210430Z 16007KT 29/17 A3001 RMK A01 T02880171  RH  049%=      5-min Rain = 0
KES1 210431Z 16007KT 29/17 A3001 RMK A01 T02880172  RH  049%=      5-min Rain = 0
KES1 210432Z 16006KT 29/17 A3001 RMK A01 T02880172  RH  049%=      5-min Rain = 0
KES1 210433Z 16006KT 29/17 A3001 RMK A01 T02880172  RH  049%=      5-min Rain = 0
KES1 210434Z 16007KT 29/17 A3001 RMK A01 T02880172  RH  050%=      5-min Rain = 0
KES1 210435Z 16007KT 29/17 A3001 RMK A01 T02870172  RH  050%=      5-min Rain = 0
KES1 210436Z 16007KT 29/17 A3001 RMK A01 T02870172  RH  050%=      5-min Rain = 0
KES1 210437Z 16007KT 29/17 A3001 RMK A01 T02870172  RH  050%=      5-min Rain = 0
KES1 210438Z 16007KT 29/17 A3001 RMK A01 T02870172  RH  050%=      5-min Rain = 0
KES1 210439Z 16007KT 29/17 A3001 RMK A01 T02860171  RH  050%=      5-min Rain = 0
KES1 210440Z 16006KT 29/17 A3001 RMK A01 T02860171  RH  050%=      5-min Rain = 0
KES1 210441Z 16006KT 29/17 A3001 RMK A01 T02860173  RH  050%=      5-min Rain = 0
KES1 210442Z 15006KT 29/17 A3001 RMK A01 T02850172  RH  050%=      5-min Rain = 0
KES1 210443Z 16007KT 29/17 A3001 RMK A01 T02850172  RH  051%=      5-min Rain = 0
KES1 210444Z 15007KT 28/17 A3001 RMK A01 T02840172  RH  051%=      5-min Rain = 0
KES1 210445Z 15007KT 28/17 A3001 RMK A01 T02840172  RH  051%=      5-min Rain = 0
KES1 210446Z 15008KT 28/17 A3001 RMK A01 T02830172  RH  051%=      5-min Rain = 0
KES1 210447Z 15007KT 28/17 A3001 RMK A01 T02830172  RH  051%=      5-min Rain = 0
KES1 210448Z 15008KT 28/17 A3001 RMK A01 T02830172  RH  051%=      5-min Rain = 0
KES1 210449Z 15007KT 28/17 A3001 RMK A01 T02830172  RH  051%=      5-min Rain = 0
KES1 210450Z 15008KT 28/17 A3001 RMK A01 T02820171  RH  051%=      5-min Rain = 0
KES1 210451Z 15008KT 28/17 A30 RMK A01 T02830171  RH  051%=      5-min Rain = 0
KES1 210452Z 15008KT 28/17 A30 RMK A01 T02830171  RH  050%=      5-min Rain = 0
KES1 210453Z 15008KT 28/17 A30 RMK A01 T02840170  RH  050%=      5-min Rain = 0
KES1 210454Z 15009KT 29/17 A30 RMK A01 T02850170  RH  050%=      5-min Rain = 0
KES1 210455Z 15009KT 29/17 A30 RMK A01 T02850170  RH  050%=      5-min Rain = 0
KES1 210456Z 15009KT 29/17 A30 RMK A01 T02860169  RH  049%=      5-min Rain = 0
KES1 210457Z 15008KT 29/17 A30 RMK A01 T02870169  RH  049%=      5-min Rain = 0
KES1 210458Z 15008KT 29/17 A30 RMK A01 T02880170  RH  049%=      5-min Rain = 0
KES1 210459Z 15008KT 29/17 A30 RMK A01 T02870169  RH  049%=      5-min Rain = 0

Page generated in 0.1264 seconds.